N4ASP-13 Weather Reports


time (UTC)temp
F
wind
direction
speed
knots
gust
knots
rain 1hr
in
rain 24hr
in
rain mn
in
humidity
%
barometer
mb
20200531074539 62 13 1.7 3.5 0.00 0.00 0.00 79 941.8
20200531074440 62 28 1.7 3.5 0.00 0.00 0.00 79 941.8
20200531074334 62 13 1.7 3.5 0.00 0.00 0.00 79 941.8
20200531074234 62 0 1.7 3.5 0.00 0.00 0.00 79 941.7
20200531074128 62 23 1.7 3.5 0.00 0.00 0.00 79 941.7
20200531074028 62 21 1.7 3.5 0.00 0.00 0.00 79 941.7
20200531073922 62 13 1.7 3.5 0.00 0.00 0.00 79 941.8
20200531073822 62 36 1.7 3.5 0.00 0.00 0.00 79 941.8
20200531073716 62 355 1.7 3.5 0.00 0.00 0.00 79 941.8
20200531073616 62 0 1.7 3.5 0.00 0.00 0.00 79 941.8
20200531073509 62 344 1.7 3.5 0.00 0.00 0.00 79 941.9
20200531073410 62 0 1.7 3.5 0.00 0.00 0.00 79 941.9
20200531073305 62 355 1.7 3.5 0.00 0.00 0.00 79 941.9
20200531073205 62 355 1.7 3.5 0.00 0.00 0.00 79 941.8
20200531073058 62 350 2.6 4.3 0.00 0.00 0.00 79 941.8
20200531072958 62 329 2.6 4.3 0.00 0.00 0.00 79 941.8
20200531072852 62 355 2.6 4.3 0.00 0.00 0.00 78 941.8
20200531072752 62 355 2.6 5.2 0.00 0.00 0.00 78 941.8
20200531072646 62 0 2.6 5.2 0.00 0.00 0.00 78 941.8
20200531072546 62 0 2.6 5.2 0.00 0.00 0.00 78 941.8
20200531072438 62 0 2.6 5.2 0.00 0.00 0.00 78 941.8
20200531072340 62 355 2.6 5.2 0.00 0.00 0.00 78 941.9
20200531072233 63 342 2.6 5.2 0.00 0.00 0.00 78 941.9
20200531072134 62 348 2.6 5.2 0.00 0.00 0.00 78 941.9
20200531072028 63 313 2.6 5.2 0.00 0.00 0.00 78 941.9
20200531071928 63 339 2.6 5.2 0.00 0.00 0.00 78 941.9
20200531071823 63 319 2.6 4.3 0.00 0.00 0.00 78 941.9
20200531071722 63 339 2.6 4.3 0.00 0.00 0.00 77 941.9
20200531071616 63 329 2.6 4.3 0.00 0.00 0.00 77 941.9
20200531071516 63 308 2.6 4.3 0.00 0.00 0.00 77 941.9
20200531071409 63 304 2.6 7.0 0.00 0.00 0.00 77 941.9
20200531071310 63 319 2.6 7.0 0.00 0.00 0.00 77 942.0
20200531071203 63 318 2.6 7.0 0.00 0.00 0.00 77 942.0
20200531071103 63 315 2.6 7.0 0.00 0.00 0.00 77 942.0
20200531070957 63 337 2.6 7.0 0.00 0.00 0.00 77 941.9
20200531070858 63 327 2.6 7.0 0.00 0.00 0.00 76 942.0
20200531070751 63 294 2.6 7.0 0.00 0.00 0.00 77 942.0
20200531070652 63 329 2.6 7.0 0.00 0.00 0.00 77 942.0
20200531070552 63 307 2.6 7.0 0.00 0.00 0.00 77 942.0
20200531070452 63 287 2.6 7.0 0.00 0.00 0.00 77 942.0
20200531070349 63 336 2.6 5.2 0.00 0.00 0.00 76 942.0
20200531070249 63 308 2.6 5.2 0.00 0.00 0.00 76 942.0
20200531070149 63 291 2.6 5.2 0.00 0.00 0.00 76 942.1
20200531070049 63 299 2.6 5.2 0.00 0.00 0.00 76 942.0
20200531065950 63 290 2.6 5.2 0.00 0.00 0.00 77 942.0
20200531065844 63 329 2.6 5.2 0.00 0.00 0.00 76 942.0
20200531065745 63 304 2.6 5.2 0.00 0.00 0.00 76 942.1
20200531065637 63 308 2.6 5.2 0.00 0.00 0.00 76 942.1
20200531065538 63 290 2.6 5.2 0.00 0.00 0.00 76 942.0
20200531065434 63 307 2.6 5.2 0.00 0.00 0.00 76 942.1
20200531065333 63 313 2.6 5.2 0.00 0.00 0.00 76 942.0
20200531065234 63 327 2.6 5.2 0.00 0.00 0.00 75 942.1
20200531065133 63 296 2.6 5.2 0.00 0.00 0.00 75 942.0
20200531065031 63 312 2.6 5.2 0.00 0.00 0.00 75 942.1
20200531064929 63 319 2.6 5.2 0.00 0.00 0.00 75 942.0
20200531064829 64 325 2.6 5.2 0.00 0.00 0.00 75 942.0
20200531064730 64 325 2.6 5.2 0.00 0.00 0.00 75 942.0
20200531064630 64 313 2.6 5.2 0.00 0.00 0.00 75 942.0
20200531064525 64 344 2.6 4.3 0.00 0.00 0.00 75 942.1
20200531064425 64 337 2.6 4.3 0.00 0.00 0.00 75 942.1
20200531064318 64 327 2.6 6.1 0.00 0.00 0.00 75 942.0
20200531064218 64 329 2.6 6.1 0.00 0.00 0.00 75 942.0
20200531064112 64 323 3.5 6.1 0.00 0.00 0.00 74 942.0
20200531064013 64 331 3.5 7.0 0.00 0.00 0.00 75 941.9
20200531063906 64 344 3.5 7.0 0.00 0.00 0.00 75 942.0
20200531063806 64 331 3.5 7.0 0.00 0.00 0.00 75 941.9
20200531063659 64 336 3.5 7.0 0.00 0.00 0.00 74 941.9
20200531063600 64 345 3.5 7.0 0.00 0.00 0.00 74 942.0
20200531063454 64 338 3.5 7.0 0.00 0.00 0.00 74 941.8
20200531063354 64 333 3.5 7.0 0.00 0.00 0.00 73 941.9
20200531063251 64 337 3.5 7.0 0.00 0.00 0.00 74 941.9
20200531063151 64 317 3.5 7.0 0.00 0.00 0.00 74 941.9
20200531063051 64 332 3.5 7.8 0.00 0.00 0.00 74 941.9
20200531062951 64 297 3.5 8.7 0.00 0.00 0.00 73 941.9
20200531062852 64 329 3.5 8.7 0.00 0.00 0.00 73 941.9
20200531062748 64 315 3.5 8.7 0.00 0.00 0.00 73 941.9
20200531062651 64 349 3.5 8.7 0.00 0.00 0.00 73 941.9
20200531062544 65 335 3.5 8.7 0.00 0.00 0.00 73 941.8
20200531062444 65 311 3.5 8.7 0.00 0.00 0.00 73 941.9
20200531062342 65 291 3.5 8.7 0.00 0.00 0.00 73 941.9
20200531062241 65 300 3.5 8.7 0.00 0.00 0.00 72 941.9
20200531062142 65 318 3.5 8.7 0.00 0.00 0.00 72 942.0
20200531062041 65 304 3.5 8.7 0.00 0.00 0.00 72 941.9
20200531061941 65 306 3.5 8.7 0.00 0.00 0.00 72 941.8
20200531061841 65 292 3.5 8.7 0.00 0.00 0.00 72 941.8
20200531061741 65 321 3.5 8.7 0.00 0.00 0.00 72 941.9
20200531061642 65 296 3.5 8.7 0.00 0.00 0.00 72 941.8
20200531061540 65 340 3.5 8.7 0.00 0.00 0.00 72 941.9
20200531061439 65 285 3.5 8.7 0.00 0.00 0.00 72 941.8
20200531061339 65 285 3.5 8.7 0.00 0.00 0.00 72 941.9
20200531061240 65 321 3.5 8.7 0.00 0.00 0.00 72 941.8
20200531061139 65 336 3.5 8.7 0.00 0.00 0.00 72 941.8
20200531061038 65 265 3.5 8.7 0.00 0.00 0.00 72 941.9
20200531060939 65 275 3.5 7.8 0.00 0.00 0.00 72 941.8
20200531060840 65 319 3.5 7.8 0.00 0.00 0.00 72 941.8
20200531060736 65 304 3.5 7.8 0.00 0.00 0.00 72 941.8
20200531060636 65 325 3.5 7.8 0.00 0.00 0.00 72 941.8
20200531060535 65 295 3.5 7.8 0.00 0.00 0.00 71 941.7
20200531060436 65 296 3.5 7.8 0.00 0.00 0.00 72 941.8
20200531060335 65 300 3.5 7.8 0.00 0.00 0.00 71 941.7
20200531060236 65 286 3.5 7.8 0.00 0.00 0.00 71 941.7
20200531060135 65 288 3.5 7.8 0.00 0.00 0.00 70 941.7
20200531060036 65 325 3.5 7.8 0.00 0.00 0.00 71 941.7
20200531055930 65 313 3.5 7.8 0.00 0.00 0.00 70 941.7
20200531055830 65 317 3.5 7.8 0.00 0.00 0.00 70 941.7
20200531055732 65 287 3.5 7.8 0.00 0.00 0.00 71 941.7
20200531055632 65 315 3.5 7.8 0.00 0.00 0.00 71 941.7
20200531055531 65 292 3.5 7.8 0.00 0.00 0.00 71 941.7
20200531055431 65 0 3.5 7.8 0.00 0.00 0.00 71 941.7
20200531055331 65 311 3.5 7.8 0.00 0.00 0.00 71 941.7
20200531055232 65 262 3.5 7.8 0.00 0.00 0.00 71 941.7
20200531055128 65 313 2.6 7.8 0.00 0.00 0.00 71 941.7
20200531055027 65 275 2.6 7.8 0.00 0.00 0.00 71 941.7
20200531054927 65 287 2.6 7.8 0.00 0.00 0.00 71 941.7
20200531054826 65 275 2.6 7.8 0.00 0.00 0.00 71 941.8
20200531054726 65 311 2.6 7.8 0.00 0.00 0.00 71 941.8
20200531054627 65 338 2.6 7.8 0.00 0.00 0.00 71 941.8
20200531054527 65 275 2.6 7.8 0.00 0.00 0.00 70 941.7
20200531054428 65 294 2.6 6.1 0.00 0.00 0.00 71 941.8
20200531054323 65 290 2.6 6.1 0.00 0.00 0.00 71 941.7
20200531054224 65 311 2.6 6.1 0.00 0.00 0.00 70 941.7
20200531054123 65 304 2.6 5.2 0.00 0.00 0.00 71 941.8
20200531054024 65 288 2.6 5.2 0.00 0.00 0.00 70 941.6
20200531053923 65 296 2.6 5.2 0.00 0.00 0.00 70 941.7
20200531053823 65 289 2.6 7.8 0.00 0.00 0.00 70 941.7
20200531053723 65 306 2.6 7.8 0.00 0.00 0.00 70 941.7
20200531053625 65 306 2.6 7.8 0.00 0.00 0.00 70 941.6
20200531053519 65 318 2.6 7.8 0.00 0.00 0.00 71 941.6
20200531053419 65 311 2.6 7.8 0.00 0.00 0.00 71 941.6
20200531053320 65 316 2.6 7.8 0.00 0.00 0.00 71 941.6
20200531053220 65 319 2.6 7.8 0.00 0.00 0.00 71 941.6
20200531053119 65 306 2.6 7.8 0.00 0.00 0.00 71 941.6
20200531053019 65 303 2.6 7.8 0.00 0.00 0.00 71 941.7
20200531052920 65 300 2.6 7.8 0.00 0.00 0.00 71 941.7
20200531052820 65 305 2.6 6.1 0.00 0.00 0.00 70 941.6
20200531052716 65 281 2.6 6.1 0.00 0.00 0.00 70 941.6
20200531052616 65 273 2.6 6.1 0.00 0.00 0.00 71 941.7
20200531052514 65 306 2.6 6.1 0.00 0.00 0.00 71 941.8
20200531052414 65 310 2.6 6.1 0.00 0.00 0.00 71 941.8
20200531052315 65 297 2.6 6.1 0.00 0.00 0.00 71 941.7
20200531052216 65 277 2.6 6.1 0.00 0.00 0.00 71 941.7
20200531052115 64 279 2.6 4.3 0.00 0.00 0.00 71 941.7
20200531052016 64 284 2.6 4.3 0.00 0.00 0.00 71 941.7
20200531051912 64 311 2.6 4.3 0.00 0.00 0.00 71 941.7
20200531051812 64 294 2.6 4.3 0.00 0.00 0.00 71 941.7
20200531051711 64 276 2.6 6.1 0.00 0.00 0.00 71 941.7
20200531051612 64 308 2.6 6.1 0.00 0.00 0.00 71 941.6
20200531051511 64 322 1.7 6.1 0.00 0.00 0.00 71 941.7
20200531051412 64 298 1.7 6.1 0.00 0.00 0.00 71 941.6
20200531051311 64 338 1.7 6.1 0.00 0.00 0.00 71 941.7
20200531051212 64 311 1.7 6.1 0.00 0.00 0.00 71 941.7
20200531051107 64 291 1.7 6.1 0.00 0.00 0.00 71 941.6
20200531051006 64 355 1.7 6.1 0.00 0.00 0.00 71 941.6
20200531050908 64 298 1.7 6.1 0.00 0.00 0.00 71 941.6
20200531050808 64 286 1.7 6.1 0.00 0.00 0.00 71 941.6
20200531050706 64 331 1.7 6.1 0.00 0.00 0.00 71 941.7
20200531050607 64 331 1.7 6.1 0.00 0.00 0.00 71 941.6
20200531050507 65 294 1.7 6.1 0.00 0.00 0.00 70 941.6
20200531050408 65 289 1.7 6.1 0.00 0.00 0.00 71 941.6
20200531050303 65 246 1.7 6.1 0.00 0.00 0.00 70 941.6
20200531050203 65 322 1.7 4.3 0.00 0.00 0.00 71 941.6
20200531050104 65 322 1.7 4.3 0.00 0.00 0.00 72 941.6
20200531050004 65 322 1.7 4.3 0.00 0.00 0.00 70 941.6
20200531045903 65 331 1.7 4.3 0.00 0.00 0.00 70 941.6
20200531045804 65 304 1.7 4.3 0.00 0.00 0.00 69 941.5
20200531045703 65 296 1.7 5.2 0.00 0.01 0.00 69 941.6
20200531045604 65 297 1.7 5.2 0.00 0.01 0.00 69 941.5
20200531045459 65 294 2.6 5.2 0.00 0.01 0.00 69 941.5
20200531045358 65 258 2.6 5.2 0.00 0.01 0.00 68 941.5
20200531045259 65 255 2.6 8.7 0.00 0.01 0.00 69 941.5
20200531045200 65 255 2.6 8.7 0.00 0.01 0.00 69 941.5
20200531045059 65 306 2.6 8.7 0.00 0.01 0.00 68 941.5
20200531045000 65 294 2.6 8.7 0.00 0.01 0.00 67 941.5
20200531044858 65 289 2.6 8.7 0.00 0.01 0.00 68 941.5
20200531044800 66 285 2.6 8.7 0.00 0.01 0.00 67 941.5
20200531044656 66 286 2.6 8.7 0.00 0.01 0.00 67 941.5
20200531044556 66 309 1.7 8.7 0.00 0.01 0.00 67 941.5
20200531044454 66 325 1.7 8.7 0.00 0.01 0.00 67 941.6
20200531044355 66 301 1.7 8.7 0.00 0.01 0.00 67 941.5
20200531044255 66 289 1.7 6.1 0.00 0.01 0.00 67 941.5
20200531044156 66 277 1.7 6.1 0.00 0.01 0.00 67 941.5
20200531044055 66 317 1.7 6.1 0.00 0.01 0.00 67 941.6
20200531043956 66 313 1.7 6.1 0.00 0.01 0.00 67 941.6
20200531043850 66 311 2.6 6.1 0.00 0.02 0.00 67 941.6
20200531043751 66 311 2.6 6.1 0.00 0.02 0.00 66 941.5
20200531043652 66 305 2.6 6.1 0.00 0.02 0.00 66 941.5
20200531043551 66 291 2.6 6.1 0.00 0.02 0.00 67 941.6
20200531043451 66 311 2.6 6.1 0.00 0.02 0.00 66 941.5
20200531043353 66 291 2.6 6.1 0.00 0.02 0.00 65 941.5
20200531043250 66 305 2.6 7.0 0.00 0.02 0.00 65 941.6
20200531043153 66 296 2.6 7.0 0.00 0.02 0.00 66 941.6
20200531043047 66 278 2.6 7.0 0.00 0.02 0.00 65 941.5
20200531042947 66 295 2.6 7.0 0.00 0.03 0.00 66 941.6
20200531042847 66 294 2.6 7.0 0.00 0.03 0.00 66 941.6
20200531042748 66 293 2.6 7.0 0.00 0.03 0.00 65 941.6
20200531042646 66 293 2.6 7.0 0.00 0.03 0.00 65 941.5
20200531042548 66 295 2.6 7.0 0.00 0.03 0.00 66 941.6
20200531042446 67 249 2.6 7.0 0.00 0.03 0.00 65 941.7
20200531042348 67 307 2.6 7.0 0.00 0.03 0.00 65 941.6
20200531042244 67 288 2.6 7.0 0.00 0.03 0.00 65 941.6
20200531042142 67 309 2.6 7.0 0.00 0.04 0.00 65 941.6
20200531042044 67 36 2.6 7.0 0.00 0.04 0.00 65 941.6
20200531041943 67 283 2.6 7.0 0.00 0.04 0.00 65 941.6
20200531041843 67 279 2.6 7.0 0.00 0.04 0.00 65 941.6
20200531041743 67 291 2.6 7.0 0.00 0.04 0.00 65 941.7
20200531041643 66 284 2.6 7.0 0.00 0.04 0.00 65 941.6
20200531041544 67 317 2.6 6.1 0.00 0.04 0.00 65 941.6
20200531041440 66 279 2.6 6.1 0.00 0.05 0.00 65 941.6
20200531041339 67 261 2.6 6.1 0.00 0.05 0.00 65 941.5
20200531041239 67 312 2.6 6.1 0.00 0.05 0.00 65 941.7
20200531041139 67 263 2.6 6.1 0.00 0.05 0.00 65 941.6
20200531041039 67 265 2.6 6.1 0.00 0.05 0.00 65 941.6
20200531040940 67 328 1.7 5.2 0.00 0.05 0.00 66 941.6
20200531040839 66 271 1.7 5.2 0.00 0.06 0.00 66 941.6
20200531040740 67 271 1.7 5.2 0.00 0.06 0.00 65 941.6
20200531040636 67 299 1.7 3.5 0.00 0.06 0.00 66 941.6
20200531040536 67 292 1.7 3.5 0.00 0.06 0.00 65 941.6
20200531040436 67 290 1.7 3.5 0.00 0.06 0.00 67 941.6
20200531040335 67 267 1.7 3.5 0.00 0.07 0.00 65 941.6
20200531040236 67 300 1.7 4.3 0.00 0.07 0.00 66 941.6
20200531040129 67 296 1.7 4.3 0.00 0.07 0.00 65 941.6
20200531040030 67 275 1.7 4.3 0.00 0.07 0.00 65 941.6
20200531035924 67 290 1.7 4.3 0.00 0.07 0.07 65 941.6
20200531035824 67 275 1.7 4.3 0.00 0.07 0.07 66 941.6
20200531035718 67 276 1.7 4.3 0.00 0.07 0.07 65 941.5
20200531035618 67 239 1.7 7.0 0.00 0.08 0.07 64 941.5
20200531035513 67 239 1.7 7.0 0.00 0.08 0.07 65 941.4
20200531035412 67 246 1.7 7.0 0.00 0.08 0.07 65 941.5
20200531035305 67 242 1.7 7.0 0.00 0.08 0.07 64 941.5
20200531035206 67 275 1.7 7.0 0.00 0.08 0.07 64 941.5
20200531035059 67 304 1.7 7.0 0.00 0.09 0.07 65 941.4
20200531035000 67 326 1.7 7.0 0.00 0.09 0.07 64 941.4
20200531034853 67 308 1.7 7.0 0.00 0.09 0.07 64 941.4
20200531034753 67 308 1.7 7.0 0.00 0.09 0.07 65 941.4
20200531034649 67 260 1.7 7.0 0.00 0.09 0.07 63 941.4
20200531034548 67 272 1.7 6.1 0.00 0.09 0.07 63 941.4
20200531034442 67 291 1.7 6.1 0.00 0.10 0.07 64 941.5
20200531034342 67 336 1.7 6.1 0.00 0.10 0.07 63 941.4
20200531034235 67 258 1.7 5.2 0.00 0.10 0.07 64 941.4
20200531034136 67 295 0.9 3.5 0.00 0.11 0.07 63 941.5
20200531034033 67 311 0.9 3.5 0.00 0.11 0.07 66 941.5
20200531033934 67 312 0.9 3.5 0.00 0.11 0.07 64 941.4
20200531033834 67 267 0.9 1.7 0.00 0.11 0.07 63 941.4
20200531033734 67 264 0.9 1.7 0.00 0.11 0.07 65 941.5
20200531033633 67 264 0.9 6.1 0.00 0.12 0.07 66 941.4
20200531033533 67 264 0.9 6.1 0.00 0.12 0.07 67 941.5
20200531033433 67 264 0.9 6.1 0.00 0.12 0.07 65 941.5
20200531033334 67 264 0.9 6.1 0.00 0.12 0.07 65 941.6
20200531033229 67 264 1.7 6.1 0.00 0.13 0.07 66 941.6
20200531033130 68 264 1.7 6.1 0.00 0.13 0.07 62 941.5
20200531033029 68 296 1.7 7.8 0.00 0.13 0.07 63 941.5
20200531032929 68 296 1.7 7.8 0.00 0.13 0.07 63 941.6
20200531032829 68 296 1.7 7.8 0.00 0.14 0.07 63 941.6
20200531032729 68 296 1.7 7.8 0.00 0.14 0.07 61 941.5
20200531032630 68 317 1.7 7.8 0.00 0.14 0.07 64 941.5
20200531032530 68 333 1.7 7.8 0.00 0.14 0.07 62 941.6
20200531032426 68 333 2.6 7.8 0.00 0.15 0.07 63 941.6
20200531032327 68 333 2.6 7.8 0.00 0.15 0.07 62 941.6
20200531032226 68 261 2.6 7.8 0.00 0.15 0.07 63 941.5
20200531032125 68 278 2.6 7.8 0.00 0.16 0.07 63 941.5
20200531032025 68 297 1.7 5.2 0.00 0.16 0.07 63 941.5
20200531031926 68 306 1.7 5.2 0.00 0.16 0.07 62 941.5
20200531031825 68 182 1.7 5.2 0.00 0.16 0.07 63 941.6
20200531031726 68 279 1.7 5.2 0.00 0.17 0.07 63 941.5
20200531031621 68 263 1.7 5.2 0.00 0.17 0.07 61 941.5
20200531031521 68 304 1.7 5.2 0.00 0.18 0.07 62 941.6
20200531031421 68 343 1.7 4.3 0.00 0.18 0.07 62 941.6
20200531031322 68 305 1.7 4.3 0.00 0.18 0.07 62 941.6
20200531031221 68 329 1.7 4.3 0.00 0.19 0.07 62 941.6
20200531031121 68 310 1.7 4.3 0.00 0.19 0.07 61 941.6
20200531031021 68 280 1.7 4.3 0.00 0.19 0.07 61 941.5
20200531030922 68 238 1.7 4.3 0.00 0.19 0.07 61 941.6
20200531030818 68 299 1.7 4.3 0.00 0.20 0.07 62 941.5
20200531030717 68 283 1.7 4.3 0.00 0.20 0.07 62 941.5
20200531030618 68 281 1.7 6.1 0.00 0.21 0.07 61 941.5
20200531030518 68 283 1.7 6.1 0.00 0.21 0.07 61 941.5
20200531030417 68 281 1.7 6.1 0.00 0.21 0.07 62 941.5
20200531030318 68 249 1.7 6.1 0.00 0.21 0.07 61 941.5
20200531030217 68 300 1.7 6.1 0.00 0.21 0.07 61 941.5
20200531030118 68 267 1.7 6.1 0.00 0.22 0.07 61 941.5
20200531030013 68 302 1.7 6.1 0.00 0.22 0.07 61 941.5
20200531025912 68 315 1.7 6.1 0.00 0.22 0.07 63 941.5
20200531025904 68 303 1.7 4.3 0.00 0.23 0.07 61 941.5
20200531025853 68 325 1.7 6.1 0.00 0.23 0.07 61 941.5
20200531025838 68 304 1.7 6.1 0.00 0.23 0.07 61 941.6
20200531025514 68 227 1.7 4.3 0.00 0.23 0.07 60 941.5
20200531025413 68 303 1.7 4.3 0.00 0.23 0.07 62 941.6
20200531025314 68 286 1.7 4.3 0.00 0.23 0.07 61 941.6
20200531025210 68 183 1.7 4.3 0.00 0.24 0.07 60 941.6
20200531025108 68 281 1.7 4.3 0.00 0.24 0.07 62 941.5
20200531025010 68 221 1.7 4.3 0.00 0.24 0.07 61 941.6
20200531024909 68 274 1.7 4.3 0.00 0.24 0.07 61 941.6
20200531024809 68 281 1.7 5.2 0.00 0.24 0.07 62 941.6
20200531024710 68 281 1.7 5.2 0.00 0.24 0.07 61 941.5
20200531024610 68 281 1.7 5.2 0.00 0.24 0.07 60 941.6
20200531024510 69 281 1.7 5.2 0.00 0.24 0.07 61 941.5
20200531024405 69 281 2.6 5.2 0.00 0.24 0.07 60 941.5
20200531024305 69 281 2.6 6.1 0.00 0.24 0.07 60 941.5
20200531024205 69 279 2.6 6.1 0.00 0.24 0.07 59 941.5
20200531024106 69 275 2.6 6.1 0.00 0.24 0.07 59 941.6
20200531024005 69 300 2.6 6.1 0.00 0.24 0.07 59 941.5
20200531023905 69 281 2.6 6.1 0.00 0.24 0.07 59 941.5
20200531023805 69 245 2.6 6.1 0.00 0.24 0.07 59 941.5
20200531023706 69 237 2.6 6.1 0.00 0.24 0.07 59 941.5
20200531023602 69 292 2.6 6.1 0.00 0.24 0.07 60 941.4
20200531023502 69 312 2.6 6.1 0.00 0.24 0.07 58 941.5
20200531023402 69 273 2.6 6.1 0.00 0.24 0.07 58 941.5
20200531023301 69 286 2.6 6.1 0.00 0.24 0.07 58 941.6
20200531023200 69 309 2.6 6.1 0.00 0.24 0.07 58 941.5
20200531023102 69 287 2.6 6.1 0.00 0.24 0.07 58 941.6
20200531023000 69 290 2.6 5.2 0.00 0.24 0.07 59 941.6
20200531022903 69 323 2.6 5.2 0.00 0.24 0.07 59 941.6
20200531022758 69 306 2.6 5.2 0.00 0.24 0.07 59 941.6
20200531022658 69 283 1.7 4.3 0.00 0.24 0.07 59 941.6
20200531022558 69 291 1.7 4.3 0.00 0.24 0.07 59 941.6
20200531022457 69 300 1.7 4.3 0.00 0.24 0.07 59 941.6
20200531022357 69 295 1.7 7.8 0.00 0.24 0.07 59 941.7
20200531022258 69 299 2.6 7.8 0.00 0.24 0.07 60 941.6
20200531022158 69 318 2.6 7.8 0.00 0.24 0.07 60 941.7
20200531022058 69 294 2.6 7.8 0.00 0.24 0.07 59 941.7
20200531021953 69 240 2.6 7.8 0.00 0.24 0.07 60 941.6
20200531021853 69 303 2.6 7.8 0.00 0.24 0.07 60 941.7
20200531021753 69 252 2.6 7.8 0.00 0.24 0.07 59 941.7
20200531021652 69 295 2.6 7.8 0.00 0.24 0.07 58 941.6
20200531021553 69 317 2.6 7.8 0.00 0.24 0.07 57 941.7
20200531021453 69 317 2.6 7.8 0.00 0.24 0.07 58 941.6
20200531021353 69 309 2.6 7.0 0.00 0.24 0.07 57 941.7
20200531021254 69 294 2.6 7.0 0.00 0.24 0.07 57 941.7
20200531021149 69 297 2.6 7.0 0.00 0.24 0.07 57 941.7
20200531021049 69 280 2.6 7.0 0.00 0.24 0.07 57 941.7
20200531020950 69 307 2.6 6.1 0.00 0.24 0.07 57 941.7
20200531020849 69 309 2.6 6.1 0.00 0.24 0.07 57 941.7
20200531020749 69 282 2.6 6.1 0.00 0.24 0.07 56 941.6
20200531020649 69 298 2.6 6.1 0.00 0.24 0.07 56 941.7
20200531020549 69 294 2.6 6.1 0.00 0.24 0.07 56 941.7
20200531020450 70 283 2.6 6.1 0.00 0.24 0.07 56 941.7
20200531020346 69 286 2.6 7.0 0.00 0.24 0.07 56 941.7
20200531020245 69 297 2.6 7.0 0.00 0.24 0.07 57 941.7
20200531020146 69 331 2.6 7.0 0.00 0.24 0.07 56 941.6
20200531020046 70 303 2.6 7.0 0.00 0.24 0.07 56 941.6
20200531015944 70 280 2.6 7.0 0.00 0.24 0.07 57 941.7
20200531015845 70 308 2.6 7.0 0.00 0.24 0.07 56 941.6
20200531015745 70 311 2.6 7.0 0.00 0.24 0.07 57 941.6
20200531015646 70 273 2.6 7.0 0.00 0.24 0.07 56 941.5
20200531015541 70 298 2.6 7.0 0.00 0.24 0.07 56 941.5
20200531015441 70 296 2.6 7.0 0.00 0.24 0.07 56 941.6
20200531015342 70 304 2.6 6.1 0.00 0.24 0.07 56 941.6
20200531015241 70 303 2.6 6.1 0.00 0.24 0.07 56 941.5
20200531015140 70 298 2.6 6.1 0.00 0.24 0.07 57 941.6
20200531015042 70 297 2.6 6.1 0.00 0.24 0.07 56 941.5
20200531014940 70 289 2.6 6.1 0.00 0.24 0.07 56 941.5
20200531014842 70 302 2.6 6.1 0.00 0.24 0.07 56 941.5
20200531014737 70 267 2.6 6.1 0.00 0.24 0.07 56 941.5
20200531014636 70 297 2.6 6.1 0.00 0.24 0.07 56 941.5
20200531014536 70 299 2.6 6.1 0.00 0.24 0.07 56 941.5
20200531014438 70 270 2.6 6.1 0.00 0.24 0.07 57 941.6
20200531014337 70 310 2.6 5.2 0.00 0.24 0.07 56 941.5
20200531014237 70 302 2.6 5.2 0.00 0.24 0.07 56 941.4
20200531014137 70 298 2.6 5.2 0.00 0.24 0.07 56 941.4
20200531014037 70 306 2.6 5.2 0.00 0.24 0.07 56 941.4
20200531013933 70 319 2.6 5.2 0.00 0.24 0.07 57 941.3
20200531013833 70 284 2.6 5.2 0.00 0.24 0.07 56 941.3
20200531013733 70 319 2.6 5.2 0.00 0.24 0.07 57 941.3
20200531013634 70 313 2.6 5.2 0.00 0.24 0.07 56 941.3
20200531013532 70 319 2.6 5.2 0.00 0.24 0.07 56 941.3
20200531013434 70 298 2.6 5.2 0.00 0.24 0.07 56 941.3
20200531013332 70 299 2.6 5.2 0.00 0.24 0.07 56 941.2
20200531013233 70 288 2.6 6.1 0.00 0.24 0.07 57 941.3
20200531013130 69 311 2.6 6.1 0.00 0.24 0.07 57 941.3
20200531013028 69 292 2.6 7.0 0.00 0.24 0.07 56 941.3
20200531012929 69 306 2.6 7.0 0.00 0.24 0.07 56 941.2
20200531012830 69 296 2.6 7.0 0.00 0.24 0.07 57 941.2
20200531012728 69 288 2.6 7.0 0.00 0.24 0.07 59 941.2
20200531012629 69 296 2.6 7.0 0.00 0.24 0.07 57 941.2
20200531012528 69 327 2.6 7.0 0.00 0.24 0.07 57 941.2
20200531012430 69 297 2.6 7.0 0.00 0.24 0.07 58 941.2
20200531012326 69 283 2.6 7.0 0.00 0.24 0.07 57 941.3
20200531012226 69 292 2.6 7.0 0.00 0.24 0.07 58 941.2
20200531012124 69 5 2.6 7.0 0.00 0.24 0.07 59 941.2
20200531012025 69 311 2.6 6.1 0.00 0.24 0.07 60 941.2
20200531011925 69 300 2.6 6.1 0.00 0.24 0.07 61 941.2
20200531011825 69 287 2.6 6.1 0.00 0.24 0.07 59 941.2
20200531011725 69 307 2.6 6.1 0.00 0.24 0.07 57 941.2
20200531011626 69 349 2.6 6.1 0.00 0.24 0.07 56 941.1
20200531011520 69 17 2.6 6.1 0.00 0.24 0.07 57 941.2
20200531011419 69 279 2.6 6.1 0.00 0.24 0.07 59 941.2
20200531011312 70 317 2.6 6.1 0.00 0.24 0.07 57 941.2
20200531011210 70 284 2.6 7.8 0.00 0.24 0.07 56 941.0
20200531011108 70 311 2.6 7.8 0.00 0.24 0.07 56 941.1
20200531011007 70 303 2.6 7.8 0.00 0.24 0.07 59 941.1
20200531010907 70 321 3.5 7.8 0.00 0.24 0.07 56 941.0
20200531010806 70 301 3.5 7.8 0.00 0.24 0.07 56 941.0
20200531010705 70 284 3.5 7.8 0.00 0.24 0.07 56 941.0
20200531010606 70 301 3.5 7.8 0.00 0.24 0.07 55 941.0
20200531010505 70 285 3.5 7.8 0.00 0.24 0.07 55 941.0
20200531010400 70 317 3.5 7.8 0.00 0.24 0.07 55 941.0
20200531010258 70 321 3.5 7.8 0.00 0.24 0.07 55 941.0
20200531010154 70 324 3.5 7.8 0.00 0.24 0.07 55 941.0
20200531010053 70 338 2.6 7.8 0.00 0.24 0.07 55 941.0
20200531005948 70 290 3.5 9.6 0.00 0.24 0.07 55 941.1
20200531005847 70 284 2.6 9.6 0.00 0.24 0.07 55 941.0
20200531005740 70 298 2.6 9.6 0.00 0.24 0.07 55 941.1
20200531005641 70 288 2.6 9.6 0.00 0.24 0.07 55 941.0
20200531005535 70 292 2.6 9.6 0.00 0.24 0.07 55 941.0
20200531005434 70 0 2.6 9.6 0.00 0.24 0.07 55 941.0
20200531005328 70 333 2.6 9.6 0.00 0.24 0.07 55 941.1
20200531005227 70 304 2.6 9.6 0.00 0.24 0.07 55 941.0
20200531005121 70 305 3.5 9.6 0.00 0.24 0.07 54 941.1
20200531005021 70 0 2.6 7.8 0.00 0.24 0.07 55 941.0
20200531004916 70 286 2.6 7.0 0.00 0.24 0.07 57 941.0
20200531004815 70 273 2.6 7.0 0.00 0.24 0.07 55 941.0
20200531004710 70 311 3.5 7.8 0.00 0.24 0.07 56 940.9
20200531004609 71 323 3.5 7.8 0.00 0.24 0.07 55 941.0
20200531004504 71 288 3.5 7.8 0.00 0.24 0.07 54 941.0
20200531004403 71 273 3.5 7.8 0.00 0.24 0.07 55 941.0
20200531004256 71 269 3.5 7.8 0.00 0.24 0.07 54 941.0
20200531004157 71 273 3.5 7.8 0.00 0.24 0.07 54 940.9
20200531004051 71 292 3.5 7.8 0.00 0.24 0.07 55 941.0
20200531003950 71 291 3.5 7.8 0.00 0.24 0.07 55 941.0
20200531003844 71 263 3.5 7.8 0.00 0.24 0.07 54 941.0
20200531003743 71 302 3.5 7.8 0.00 0.24 0.07 56 941.0
20200531003637 71 315 3.5 7.8 0.00 0.24 0.07 56 940.9
20200531003537 71 278 3.5 7.8 0.00 0.24 0.07 54 941.0
20200531003432 71 273 3.5 7.8 0.00 0.24 0.07 54 941.0
20200531003331 71 300 3.5 7.8 0.00 0.24 0.07 56 940.9
20200531003225 71 277 3.5 7.8 0.00 0.24 0.07 54 940.9
20200531003125 71 278 2.6 7.0 0.00 0.24 0.07 55 940.9
20200531003020 71 271 3.5 7.0 0.00 0.24 0.07 54 940.9
20200531002920 71 281 3.5 7.0 0.00 0.24 0.07 54 940.9
20200531002813 71 290 3.5 6.1 0.00 0.24 0.07 55 940.9
20200531002713 71 306 3.5 6.1 0.00 0.24 0.07 55 941.0
20200531002606 71 267 3.5 6.1 0.00 0.24 0.07 53 940.9
20200531002507 71 297 2.6 6.1 0.00 0.24 0.07 55 940.8
20200531002359 71 319 2.6 6.1 0.00 0.24 0.07 53 941.0
20200531002259 71 269 2.6 6.1 0.00 0.24 0.07 54 941.0
20200531002152 71 294 3.5 8.7 0.00 0.24 0.07 55 940.9
20200531002053 71 306 3.5 8.7 0.00 0.24 0.07 54 941.0
20200531001948 71 283 3.5 8.7 0.00 0.24 0.07 54 940.9
20200531001847 71 292 2.6 8.7 0.00 0.24 0.07 55 940.9
20200531001742 71 281 2.6 8.7 0.00 0.24 0.07 56 940.8
20200531001641 72 294 3.5 8.7 0.00 0.24 0.07 55 940.9
20200531001542 72 298 3.5 8.7 0.00 0.24 0.07 55 940.9
20200531001441 72 317 3.5 8.7 0.00 0.24 0.07 54 940.8
20200531001341 72 339 3.5 8.7 0.00 0.24 0.07 54 940.9
20200531001240 72 309 3.5 10.4 0.00 0.24 0.07 54 940.8
20200531001138 72 290 3.5 10.4 0.00 0.24 0.07 54 940.7
20200531001040 72 291 3.5 10.4 0.00 0.24 0.07 55 940.8
20200531000939 72 333 4.3 10.4 0.00 0.24 0.07 54 940.8
20200531000833 72 299 4.3 10.4 0.00 0.24 0.07 54 940.7
20200531000733 72 319 4.3 10.4 0.00 0.24 0.07 55 940.7
20200531000627 72 304 4.3 10.4 0.00 0.24 0.07 55 940.8
20200531000527 72 291 4.3 10.4 0.00 0.24 0.07 54 940.7
20200531000422 72 277 3.5 10.4 0.00 0.24 0.07 54 940.8
20200531000321 72 271 3.5 10.4 0.00 0.24 0.07 55 940.8
20200531000214 72 317 3.5 8.7 0.00 0.24 0.07 55 940.7
20200531000115 72 304 3.5 8.7 0.00 0.24 0.07 55 940.7
20200531000008 72 294 3.5 8.7 0.00 0.24 0.07 55 940.7
20200530235908 72 336 2.6 8.7 0.00 0.24 0.07 55 940.6
20200530235801 72 283 2.6 7.0 0.00 0.24 0.07 55 940.7
20200530235701 72 286 2.6 7.0 0.00 0.24 0.07 56 940.7
20200530235555 72 330 2.6 7.0 0.00 0.24 0.07 55 940.7
20200530235456 72 299 2.6 7.0 0.00 0.24 0.07 56 940.6
20200530235350 72 283 2.6 7.0 0.00 0.24 0.07 55 940.7
20200530235249 72 300 2.6 7.0 0.00 0.24 0.07 55 940.7
20200530235143 72 321 2.6 8.7 0.00 0.24 0.07 55 940.5
20200530235043 72 311 2.6 8.7 0.00 0.24 0.07 56 940.6
20200530234937 73 17 2.6 8.7 0.00 0.24 0.07 56 940.6
20200530234837 73 323 2.6 8.7 0.00 0.24 0.07 56 940.5
20200530234730 73 338 3.5 8.7 0.00 0.24 0.07 54 940.6
20200530234631 73 301 3.5 8.7 0.00 0.24 0.07 56 940.7
20200530234526 73 294 3.5 8.7 0.00 0.24 0.07 56 940.7
20200530234424 73 318 3.5 8.7 0.00 0.24 0.07 55 940.6
20200530234317 73 298 3.5 8.7 0.00 0.24 0.07 55 940.6
20200530234217 73 337 3.5 7.8 0.00 0.24 0.07 55 940.6
20200530234111 73 307 3.5 7.8 0.00 0.24 0.07 55 940.5
20200530234011 73 348 3.5 7.8 0.00 0.24 0.07 55 940.6
20200530233906 73 336 3.5 7.8 0.00 0.24 0.07 54 940.5
20200530233805 73 298 3.5 7.8 0.00 0.24 0.07 55 940.5
20200530233700 73 309 3.5 7.8 0.00 0.24 0.07 54 940.4
20200530233601 73 348 2.6 6.1 0.00 0.25 0.07 56 940.5
20200530233500 73 308 2.6 5.2 0.00 0.25 0.07 55 940.5
20200530233400 73 319 2.6 6.1 0.00 0.25 0.07 57 940.3
20200530233300 73 309 2.6 6.1 0.00 0.25 0.07 56 940.4
20200530233158 73 337 2.6 6.1 0.00 0.26 0.07 58 940.3
20200530233056 73 304 2.6 6.1 0.00 0.26 0.07 58 940.4
20200530232958 73 355 2.6 6.1 0.00 0.26 0.07 56 940.4
20200530232857 73 317 2.6 6.1 0.00 0.26 0.07 56 940.3
20200530232752 73 315 2.6 6.1 0.00 0.26 0.07 55 940.3
20200530232651 73 313 2.6 6.1 0.00 0.27 0.07 56 940.2
20200530232546 73 310 2.6 6.1 0.00 0.27 0.07 57 940.3
20200530232446 73 292 2.6 6.1 0.00 0.27 0.07 56 940.3
20200530232340 73 298 2.6 7.0 0.00 0.27 0.07 56 940.2
20200530232239 73 302 2.6 7.0 0.00 0.28 0.07 56 940.2
20200530232132 73 327 3.5 7.0 0.00 0.28 0.07 57 940.2
20200530232033 74 300 3.5 7.8 0.00 0.28 0.07 55 940.2
20200530231927 74 298 3.5 7.8 0.00 0.28 0.07 56 940.1
20200530231826 74 315 3.5 9.6 0.00 0.28 0.07 56 940.2
20200530231719 74 313 3.5 9.6 0.00 0.29 0.07 56 940.1
20200530231619 74 0 3.5 9.6 0.00 0.29 0.07 56 940.1
20200530231513 74 290 3.5 9.6 0.00 0.29 0.07 55 940.1
20200530231413 74 287 3.5 9.6 0.00 0.30 0.07 56 940.0
20200530231307 74 325 3.5 9.6 0.00 0.30 0.07 56 940.1
20200530231207 74 355 3.5 9.6 0.00 0.30 0.07 54 940.0
20200530231101 74 321 3.5 9.6 0.00 0.30 0.07 53 940.0
20200530231001 74 317 3.5 9.6 0.00 0.31 0.07 54 940.0
20200530230854 74 297 3.5 10.4 0.00 0.31 0.07 58 940.0
20200530230755 74 242 3.5 10.4 0.00 0.31 0.07 55 940.0
20200530230649 74 339 3.5 10.4 0.00 0.31 0.07 57 940.0
20200530230549 74 286 4.3 10.4 0.00 0.31 0.07 57 940.0
20200530230444 74 267 4.3 10.4 0.00 0.32 0.07 57 940.0
20200530230342 74 302 4.3 10.4 0.00 0.32 0.07 55 940.1
20200530230235 74 295 4.3 10.4 0.00 0.33 0.07 54 940.1
20200530230135 74 267 4.3 10.4 0.00 0.33 0.07 53 940.0
20200530230030 74 311 3.5 10.4 0.00 0.33 0.07 54 940.0
20200530225929 74 290 3.5 10.4 0.00 0.33 0.07 54 940.0
20200530225824 74 290 3.5 8.7 0.00 0.34 0.07 55 940.0
20200530225722 74 309 3.5 8.7 0.00 0.34 0.07 56 940.0
20200530225618 74 335 3.5 8.7 0.00 0.34 0.07 55 940.1
20200530225518 74 291 3.5 8.7 0.00 0.35 0.07 57 940.1
20200530225418 74 319 3.5 8.7 0.00 0.35 0.07 58 940.0
20200530225318 74 254 3.5 8.7 0.00 0.35 0.07 61 940.0
20200530225217 74 234 3.5 8.7 0.00 0.35 0.07 62 940.0
20200530225116 74 234 3.5 8.7 0.00 0.35 0.07 57 939.9
20200530225015 74 332 3.5 8.7 0.00 0.35 0.07 57 939.8
20200530224916 74 288 3.5 8.7 0.00 0.35 0.07 57 940.0
20200530224815 74 288 3.5 8.7 0.00 0.35 0.07 57 939.9
20200530224710 74 355 3.5 9.6 0.00 0.36 0.07 59 939.8
20200530224609 74 299 3.5 9.6 0.00 0.36 0.07 59 939.8
20200530224505 74 304 4.3 9.6 0.00 0.36 0.07 60 939.7
20200530224404 74 300 4.3 9.6 0.00 0.36 0.07 60 939.7
20200530224304 75 306 4.3 9.6 0.00 0.36 0.07 59 939.7
20200530224203 75 315 4.3 9.6 0.00 0.36 0.07 60 939.7
20200530224103 75 292 4.3 9.6 0.00 0.36 0.07 59 939.7
20200530224000 75 314 4.3 9.6 0.00 0.36 0.07 58 939.6
20200530223900 75 291 4.3 9.6 0.00 0.36 0.07 58 939.7
20200530223800 75 343 4.3 9.6 0.00 0.36 0.07 58 939.6
20200530223701 74 333 4.3 9.6 0.00 0.36 0.07 57 939.6
20200530223556 74 343 3.5 9.6 0.00 0.36 0.07 58 939.6
20200530223455 74 325 3.5 9.6 0.00 0.36 0.07 60 939.7
20200530223349 74 308 3.5 7.0 0.00 0.36 0.07 59 939.7
20200530223249 74 294 3.5 7.0 0.00 0.36 0.07 59 939.6
20200530223144 74 275 3.5 7.0 0.00 0.36 0.07 58 939.7
20200530223043 74 312 3.5 7.0 0.00 0.36 0.07 58 939.7
20200530222936 74 290 3.5 7.0 0.00 0.36 0.07 57 939.8
20200530222837 74 315 3.5 7.0 0.00 0.36 0.07 58 939.8
20200530222730 74 279 3.5 7.0 0.00 0.36 0.07 58 939.7
20200530222631 74 292 3.5 7.0 0.00 0.36 0.07 59 939.7
20200530222526 74 306 3.5 7.0 0.00 0.36 0.07 58 939.8
20200530222426 74 312 3.5 9.6 0.00 0.36 0.07 57 939.7
20200530222319 75 319 2.6 9.6 0.00 0.36 0.07 57 939.8
20200530222219 75 331 2.6 9.6 0.00 0.36 0.07 57 939.8
20200530222114 75 309 2.6 9.6 0.00 0.36 0.07 57 939.8
20200530222013 75 287 2.6 9.6 0.00 0.36 0.07 59 939.8
20200530221908 75 332 2.6 9.6 0.00 0.36 0.07 57 939.7
20200530221807 75 283 2.6 9.6 0.00 0.36 0.07 55 939.8
20200530221701 75 295 2.6 9.6 0.00 0.36 0.07 59 939.8
20200530221601 75 0 2.6 9.6 0.00 0.36 0.07 59 939.8
20200530221455 75 343 1.7 7.0 0.00 0.36 0.07 62 939.8
20200530221355 74 333 1.7 7.0 0.00 0.36 0.07 61 939.8
20200530221250 74 300 1.7 7.0 0.00 0.36 0.07 61 939.7
20200530221149 74 324 2.6 7.0 0.00 0.36 0.07 62 939.8
20200530221043 74 314 2.6 7.0 0.00 0.36 0.07 60 939.8
20200530220943 74 303 2.6 7.0 0.00 0.36 0.07 59 939.9
20200530220836 75 303 2.6 7.0 0.00 0.36 0.07 59 939.9
20200530220738 75 329 2.6 7.0 0.00 0.36 0.07 58 939.9
20200530220631 75 309 2.6 6.1 0.00 0.36 0.07 59 939.9
20200530220531 75 275 2.6 6.1 0.00 0.36 0.07 59 939.9
20200530220426 75 324 2.6 6.1 0.00 0.36 0.07 58 939.8
20200530220325 75 300 2.6 6.1 0.00 0.36 0.07 58 939.9
20200530220218 75 300 2.6 6.1 0.00 0.36 0.07 59 939.9
20200530220120 75 308 3.5 6.1 0.00 0.36 0.07 60 939.9
20200530220014 75 315 2.6 8.7 0.00 0.36 0.07 60 939.9
20200530215913 75 312 3.5 8.7 0.00 0.36 0.07 61 939.9
20200530215807 75 355 3.5 8.7 0.00 0.36 0.07 60 939.8
20200530215707 75 281 3.5 8.7 0.00 0.36 0.07 60 939.8
20200530215602 75 309 3.5 8.7 0.00 0.36 0.07 62 939.8
20200530215502 75 310 3.5 8.7 0.00 0.36 0.07 58 939.8
20200530215355 75 355 3.5 8.7 0.00 0.36 0.07 58 939.8
20200530215255 75 309 3.5 8.7 0.00 0.36 0.07 58 939.8
20200530215149 76 280 3.5 8.7 0.00 0.36 0.07 58 939.9
20200530215049 76 306 2.6 7.0 0.00 0.36 0.07 62 939.8
20200530214944 76 296 3.5 7.0 0.00 0.36 0.07 60 939.8
20200530214842 76 313 2.6 7.0 0.00 0.36 0.07 61 939.8
20200530214736 76 287 2.6 7.0 0.00 0.36 0.07 58 939.8
20200530214638 76 304 2.6 7.0 0.00 0.36 0.07 57 939.8
20200530214530 76 301 2.6 7.0 0.00 0.36 0.07 58 939.8
20200530214431 76 298 2.6 7.0 0.00 0.36 0.07 58 939.9
20200530214326 76 309 2.6 7.0 0.00 0.36 0.07 58 939.8
20200530214225 76 322 2.6 7.0 0.00 0.36 0.07 56 939.9
20200530214119 76 303 2.6 7.0 0.00 0.36 0.07 58 939.8
20200530214019 76 318 1.7 7.0 0.00 0.36 0.07 59 939.8
20200530213912 76 299 1.7 7.0 0.00 0.36 0.07 58 939.8
20200530213813 76 300 2.6 7.0 0.00 0.36 0.07 59 939.8
20200530213706 76 276 2.6 7.0 0.00 0.36 0.07 57 939.9
20200530213607 77 273 2.6 7.0 0.00 0.36 0.07 56 939.9
20200530213502 77 312 2.6 7.0 0.00 0.36 0.07 56 939.8
20200530213401 77 293 2.6 7.0 0.00 0.36 0.07 55 939.9
20200530213256 77 305 2.6 7.0 0.00 0.36 0.07 56 939.8
20200530213155 77 311 2.6 7.0 0.00 0.36 0.07 56 939.9
20200530213050 78 274 2.6 7.0 0.00 0.36 0.07 60 939.8
20200530212949 78 274 2.6 7.0 0.00 0.36 0.07 56 939.8
20200530212844 78 325 2.6 7.0 0.00 0.36 0.07 56 939.8
20200530212744 77 326 2.6 7.0 0.00 0.36 0.07 59 939.8
20200530212636 77 317 2.6 7.0 0.00 0.36 0.07 59 939.8
20200530212537 76 336 1.7 7.0 0.00 0.36 0.07 56 939.8
20200530212432 76 301 2.6 4.3 0.00 0.36 0.07 58 939.8
20200530212331 76 315 2.6 4.3 0.00 0.36 0.07 58 939.8
20200530212226 76 309 2.6 7.0 0.00 0.36 0.07 57 939.8
20200530212126 76 338 2.6 7.0 0.00 0.36 0.07 57 939.7
20200530212018 76 348 3.5 7.0 0.00 0.36 0.07 57 939.8
20200530211919 76 306 3.5 7.0 0.00 0.36 0.07 57 939.8
20200530211813 77 295 3.5 9.6 0.00 0.36 0.07 56 939.8
20200530211713 77 323 3.5 9.6 0.00 0.36 0.07 58 939.8
20200530211606 77 296 3.5 9.6 0.00 0.36 0.07 55 939.8
20200530211507 78 310 3.5 9.6 0.00 0.36 0.07 56 939.7
20200530211400 78 294 3.5 9.6 0.00 0.36 0.07 54 939.7
20200530211301 78 318 3.5 9.6 0.00 0.36 0.07 55 939.8
20200530211155 78 312 2.6 9.6 0.00 0.36 0.07 56 939.8
20200530211055 78 293 2.6 9.6 0.00 0.36 0.07 58 939.7
20200530210950 78 323 2.6 9.6 0.00 0.36 0.07 57 939.8
20200530210849 78 355 2.6 9.6 0.00 0.36 0.07 55 939.7
20200530210744 77 284 1.7 7.8 0.00 0.36 0.07 57 939.8
20200530210644 77 323 1.7 7.8 0.00 0.36 0.07 56 939.8
20200530210537 77 330 1.7 7.8 0.00 0.36 0.07 61 939.8
20200530210437 77 282 1.7 6.1 0.00 0.36 0.07 62 939.7
20200530210331 77 320 2.6 6.1 0.00 0.36 0.07 63 939.8
20200530210231 77 278 2.6 7.8 0.00 0.36 0.07 57 939.7
20200530210126 77 300 2.6 7.8 0.00 0.36 0.07 55 939.8
20200530210026 77 280 1.7 7.8 0.00 0.36 0.07 58 939.7
20200530205919 77 5 1.7 7.8 0.00 0.36 0.07 59 939.8
20200530205819 78 5 1.7 7.8 0.00 0.36 0.07 55 939.8
20200530205712 78 292 1.7 7.8 0.00 0.36 0.07 54 939.8
20200530205613 78 298 1.7 7.8 0.00 0.36 0.07 54 939.8
20200530205508 78 306 1.7 7.8 0.00 0.36 0.07 56 939.7
20200530205408 78 304 0.9 7.8 0.00 0.36 0.07 56 939.8
20200530205301 78 280 0.9 6.1 0.00 0.36 0.07 56 939.8
20200530205201 78 319 0.9 4.3 0.00 0.36 0.07 60 939.8
20200530205055 77 328 0.9 4.3 0.00 0.36 0.07 62 939.7
20200530204955 77 328 0.9 4.3 0.00 0.36 0.07 63 939.8
20200530204848 77 328 0.9 7.0 0.00 0.36 0.07 63 939.8
20200530204749 76 328 0.9 7.0 0.00 0.36 0.07 60 939.8
20200530204644 76 317 0.9 7.0 0.00 0.36 0.07 60 939.9
20200530204543 76 317 1.7 7.0 0.00 0.36 0.07 60 939.8
20200530204438 77 317 1.7 7.0 0.00 0.36 0.07 57 939.8
20200530204337 77 15 1.7 7.0 0.00 0.36 0.07 60 939.9
20200530204232 77 260 1.7 7.0 0.00 0.36 0.07 53 939.8
20200530204131 78 227 1.7 7.0 0.00 0.36 0.07 56 939.8
20200530204024 78 300 1.7 7.0 0.00 0.36 0.07 55 939.8
20200530203925 78 339 1.7 7.0 0.00 0.36 0.07 54 939.7
20200530203818 78 271 1.7 7.0 0.00 0.36 0.07 60 939.7
20200530203719 78 271 1.7 7.0 0.00 0.36 0.07 57 939.8
20200530203612 78 270 1.7 7.0 0.00 0.36 0.07 56 939.7
20200530203513 78 267 1.7 7.0 0.00 0.36 0.07 55 939.8
20200530203406 78 234 1.7 3.5 0.00 0.36 0.07 57 939.8
20200530203307 78 298 1.7 3.5 0.00 0.36 0.07 59 939.8
20200530203202 78 286 1.7 3.5 0.00 0.36 0.07 60 939.8
20200530203102 77 304 1.7 3.5 0.00 0.36 0.07 60 939.8
20200530202954 77 307 1.7 3.5 0.00 0.36 0.07 60 939.8
20200530202855 77 25 0.9 3.5 0.00 0.36 0.07 61 939.9
20200530202749 78 57 0.9 3.5 0.00 0.36 0.07 58 939.9
20200530202649 78 275 0.9 3.5 0.00 0.36 0.07 59 939.8
20200530202543 78 344 0.9 3.5 0.00 0.36 0.07 60 939.8
20200530202444 78 338 0.9 3.5 0.00 0.36 0.07 60 939.8
20200530202336 78 338 0.9 3.5 0.00 0.36 0.07 65 939.8
20200530202237 78 338 0.9 3.5 0.00 0.36 0.07 59 939.8
20200530202130 78 342 0.9 3.5 0.00 0.36 0.07 61 939.9
20200530202031 78 232 0.9 1.7 0.00 0.36 0.07 58 939.8
20200530201924 78 232 0.9 1.7 0.00 0.36 0.07 60 939.8
20200530201825 78 286 0.9 1.7 0.00 0.36 0.07 64 939.8
20200530201718 78 286 0.9 1.7 0.00 0.36 0.07 61 939.8
20200530201619 79 286 0.9 1.7 0.00 0.36 0.07 59 939.8
20200530201513 79 287 0.9 1.7 0.00 0.36 0.07 56 939.8
20200530201413 79 280 0.9 2.6 0.00 0.36 0.07 60 939.8
20200530201306 78 280 0.9 2.6 0.00 0.36 0.07 59 939.8
20200530201207 78 279 0.9 2.6 0.00 0.36 0.07 59 939.8
20200530201101 78 279 1.7 2.6 0.00 0.36 0.07 59 939.8
20200530201001 78 280 1.7 2.6 0.00 0.36 0.07 60 939.8
20200530200854 78 280 0.9 2.6 0.00 0.36 0.07 61 939.8
20200530200755 78 245 1.7 2.6 0.00 0.36 0.07 60 939.8
20200530200648 78 248 1.7 2.6 0.00 0.36 0.07 65 939.8
20200530200549 78 248 1.7 2.6 0.00 0.36 0.07 64 939.8
20200530200443 79 286 0.9 2.6 0.00 0.36 0.07 62 939.8
20200530200344 80 304 0.9 2.6 0.00 0.36 0.07 57 939.7
20200530200236 79 346 0.9 2.6 0.00 0.36 0.07 57 939.7
20200530200137 79 187 0.9 2.6 0.00 0.36 0.07 61 939.7
20200530200030 78 134 0.9 2.6 0.00 0.36 0.07 56 939.7
20200530195931 78 240 0.9 2.6 0.00 0.36 0.07 55 939.7
20200530195825 78 240 0.9 5.2 0.00 0.36 0.07 59 939.8
20200530195725 79 238 0.9 5.2 0.00 0.36 0.07 59 939.8
20200530195618 79 339 0.9 5.2 0.00 0.36 0.07 59 939.8
20200530195519 79 338 0.9 5.2 0.00 0.36 0.07 60 939.8
20200530195414 79 221 1.7 5.2 0.00 0.36 0.07 57 939.8
20200530195313 79 331 1.7 5.2 0.00 0.36 0.07 61 939.8
20200530195206 79 331 1.7 5.2 0.00 0.36 0.07 64 939.8
20200530195107 80 331 1.7 6.1 0.00 0.36 0.07 57 939.9
20200530195002 80 16 2.6 7.0 0.00 0.36 0.07 54 939.9
20200530194901 80 343 2.6 7.0 0.00 0.36 0.07 57 939.9
20200530194755 81 348 2.6 9.6 0.00 0.36 0.07 60 939.9
20200530194655 81 350 3.5 9.6 0.00 0.36 0.07 56 939.9
20200530194548 81 355 3.5 9.6 0.00 0.36 0.07 56 939.9
20200530194449 81 338 3.5 9.6 0.00 0.36 0.07 56 939.9
20200530194344 81 342 3.5 9.6 0.00 0.36 0.07 57 939.9
20200530194244 81 336 3.5 9.6 0.00 0.36 0.07 58 940.0
20200530194137 81 325 3.5 9.6 0.00 0.36 0.07 56 939.8
20200530194037 81 15 3.5 9.6 0.00 0.36 0.07 57 939.9
20200530193932 80 11 3.5 9.6 0.00 0.36 0.07 57 939.9
20200530193832 81 317 3.5 9.6 0.00 0.36 0.07 53 939.9
20200530193724 80 336 3.5 7.0 0.00 0.36 0.07 58 940.0
20200530193625 80 325 2.6 7.0 0.00 0.36 0.07 58 939.9
20200530193518 80 313 2.6 7.0 0.00 0.36 0.07 59 940.0
20200530193419 80 350 2.6 7.0 0.00 0.36 0.07 57 940.0
20200530193317 79 355 2.6 6.1 0.00 0.36 0.07 59 940.0
20200530193216 79 355 1.7 6.1 0.00 0.36 0.07 62 940.1
20200530193116 78 319 1.7 6.1 0.00 0.36 0.07 58 940.0
20200530193016 78 303 1.7 6.1 0.00 0.36 0.07 63 940.0
20200530192916 77 300 1.7 5.2 0.00 0.36 0.07 61 940.0
20200530192816 76 313 1.7 5.2 0.00 0.36 0.07 61 940.1
20200530192717 76 330 1.7 5.2 0.00 0.36 0.07 64 940.1
20200530192610 76 288 2.6 8.7 0.00 0.36 0.07 62 940.2
20200530192511 76 283 2.6 11.3 0.00 0.36 0.07 68 940.2
20200530192404 76 355 2.6 11.3 0.00 0.36 0.07 67 940.2
20200530192305 76 319 2.6 11.3 0.00 0.36 0.07 62 940.1
20200530192200 77 323 3.5 11.3 0.00 0.36 0.07 62 940.2
20200530192059 77 273 3.5 11.3 0.00 0.36 0.07 63 940.2
20200530191952 78 270 3.5 11.3 0.00 0.36 0.07 63 940.1
20200530191853 79 284 3.5 11.3 0.00 0.36 0.07 61 940.1
20200530191748 79 284 3.5 11.3 0.00 0.36 0.07 58 940.1
20200530191647 79 336 2.6 11.3 0.00 0.36 0.07 61 940.1
20200530191542 79 5 2.6 7.8 0.00 0.36 0.07 60 940.1
20200530191443 79 321 2.6 7.8 0.00 0.36 0.07 57 940.1
20200530191334 79 349 2.6 7.8 0.00 0.36 0.07 56 940.1
20200530191236 79 288 1.7 7.8 0.00 0.36 0.07 58 940.2
20200530191130 79 273 1.7 7.0 0.00 0.36 0.07 61 940.2
20200530191029 79 334 1.7 7.0 0.00 0.36 0.07 61 940.2
20200530190923 78 344 1.7 7.0 0.00 0.36 0.07 63 940.2
20200530190823 77 355 1.7 4.3 0.00 0.36 0.07 67 940.3
20200530190718 76 326 1.7 3.5 0.00 0.36 0.07 65 940.2
20200530190617 76 321 0.9 3.5 0.00 0.36 0.07 62 940.2
20200530190511 76 274 0.9 3.5 0.00 0.36 0.07 60 940.2
20200530190411 76 315 0.9 3.5 0.00 0.36 0.07 62 940.2
20200530190304 75 279 0.9 3.5 0.00 0.36 0.07 64 940.2
20200530190205 76 279 0.9 4.3 0.00 0.36 0.07 62 940.2
20200530190058 76 346 1.7 4.3 0.00 0.36 0.07 65 940.3
20200530185959 76 346 1.7 6.1 0.00 0.36 0.07 61 940.2
20200530185854 77 346 1.7 6.1 0.00 0.36 0.07 63 940.2
20200530185754 78 346 1.7 7.0 0.00 0.36 0.07 64 940.3
20200530185647 78 266 2.6 7.0 0.00 0.36 0.07 62 940.3
20200530185547 79 294 3.5 7.8 0.00 0.36 0.07 61 940.3
20200530185441 79 296 3.5 7.8 0.00 0.36 0.07 61 940.3
20200530185341 80 297 3.5 7.8 0.00 0.36 0.07 61 940.3
20200530185235 80 248 3.5 7.8 0.00 0.36 0.07 57 940.3
20200530185136 80 311 3.5 7.8 0.00 0.36 0.07 59 940.3
20200530185029 80 349 3.5 7.8 0.00 0.36 0.07 61 940.3
20200530184929 80 302 3.5 7.8 0.00 0.36 0.07 58 940.3
20200530184822 80 333 3.5 7.8 0.00 0.36 0.07 60 940.3
20200530184723 80 310 2.6 7.8 0.00 0.36 0.07 61 940.4
20200530184618 79 325 2.6 7.0 0.00 0.36 0.07 63 940.3
20200530184518 79 0 1.7 6.1 0.00 0.36 0.07 64 940.3
20200530184411 78 342 1.7 6.1 0.00 0.36 0.07 62 940.4
20200530184311 78 25 1.7 6.1 0.00 0.36 0.07 61 940.4
20200530184205 78 302 1.7 6.1 0.00 0.36 0.07 62 940.4
20200530184105 77 311 1.7 6.1 0.00 0.36 0.07 68 940.5
20200530184000 76 0 1.7 6.1 0.00 0.36 0.07 65 940.4
20200530183859 76 331 1.7 6.1 0.00 0.36 0.07 68 940.5
20200530183753 76 272 2.6 6.1 0.00 0.36 0.07 67 940.5
20200530183653 76 272 2.6 6.1 0.00 0.36 0.07 62 940.4
20200530183546 77 254 2.6 6.1 0.00 0.36 0.07 61 940.5
20200530183447 77 298 2.6 6.1 0.00 0.36 0.07 62 940.5
20200530183341 78 307 2.6 6.1 0.00 0.36 0.07 59 940.6
20200530183241 78 277 1.7 6.1 0.00 0.36 0.07 61 940.5
20200530183136 79 355 1.7 6.1 0.00 0.36 0.07 61 940.5
20200530183036 79 294 1.7 5.2 0.00 0.36 0.07 60 940.6
20200530182929 79 322 1.7 5.2 0.00 0.36 0.07 62 940.5
20200530182829 79 302 0.9 5.2 0.00 0.36 0.07 68 940.5
20200530182724 78 23 0.9 3.5 0.00 0.36 0.07 67 940.5
20200530182623 77 48 0.9 3.5 0.00 0.36 0.07 67 940.6
20200530182516 77 17 0.9 3.5 0.00 0.36 0.07 72 940.6
20200530182417 76 252 0.9 1.7 0.00 0.36 0.07 69 940.6
20200530182310 76 252 0.9 1.7 0.00 0.36 0.07 79 940.6
20200530182211 75 252 0.9 1.7 0.00 0.36 0.07 75 940.6
20200530182104 75 252 0.9 1.7 0.00 0.36 0.07 76 940.6
20200530182005 74 252 0.9 1.7 0.00 0.36 0.07 77 940.7
20200530181858 74 252 0.9 1.7 0.00 0.36 0.07 77 940.6
20200530181800 74 252 0.9 1.7 0.00 0.36 0.07 74 940.6
20200530181653 74 252 0.9 1.7 0.00 0.36 0.07 72 940.6
20200530181553 74 252 0.9 2.6 0.00 0.36 0.07 73 940.6
20200530181448 74 252 0.9 2.6 0.00 0.36 0.07 75 940.7
20200530181348 74 252 0.9 2.6 0.00 0.36 0.07 74 940.7
20200530181240 74 252 0.9 2.6 0.00 0.36 0.07 74 940.7
20200530181141 74 252 0.9 2.6 0.00 0.36 0.07 75 940.7
20200530181035 75 252 0.9 2.6 0.00 0.36 0.07 77 940.7
20200530180935 75 252 0.9 2.6 0.00 0.36 0.07 73 940.7
20200530180828 75 252 0.9 3.5 0.00 0.36 0.07 69 940.7
20200530180729 76 252 0.9 3.5 0.00 0.36 0.07 70 940.7
20200530180622 76 252 0.9 3.5 0.00 0.36 0.07 72 940.7
20200530180523 77 325 0.9 3.5 0.00 0.36 0.07 73 940.7
20200530180417 77 323 0.9 3.5 0.00 0.36 0.07 65 940.7
20200530180317 78 323 1.7 3.5 0.00 0.36 0.07 65 940.7
20200530180210 78 323 1.7 3.5 0.00 0.36 0.07 68 940.7
20200530180111 78 323 1.7 3.5 0.00 0.36 0.07 62 940.8
20200530180004 78 323 1.7 3.5 0.00 0.36 0.07 66 940.7
20200530175905 79 278 1.7 3.5 0.00 0.36 0.07 64 940.7
20200530175802 79 275 1.7 3.5 0.00 0.36 0.07 65 940.7
20200530175700 79 276 1.7 3.5 0.00 0.36 0.07 66 940.7
20200530175602 79 68 1.7 3.5 0.00 0.36 0.07 64 940.8
20200530175459 79 348 1.7 3.5 0.00 0.36 0.07 67 940.8
20200530175358 78 348 2.6 9.6 0.00 0.36 0.07 63 940.9
20200530175256 78 321 1.7 9.6 0.00 0.36 0.07 67 940.9
20200530175156 78 330 1.7 9.6 0.00 0.36 0.07 63 940.8
20200530175057 78 315 1.7 9.6 0.00 0.36 0.07 69 940.8
20200530174958 78 261 1.7 9.6 0.00 0.36 0.07 69 940.8
20200530174850 78 260 1.7 9.6 0.00 0.36 0.07 68 940.9
20200530174751 78 315 1.7 9.6 0.00 0.36 0.07 67 940.8
20200530174645 78 315 1.7 9.6 0.00 0.36 0.07 65 940.9
20200530174545 78 296 1.7 9.6 0.00 0.36 0.07 65 940.9
20200530174439 78 317 1.7 9.6 0.00 0.36 0.07 67 940.9
20200530174339 78 328 1.7 5.2 0.00 0.36 0.07 68 940.8
20200530174233 78 298 1.7 3.5 0.00 0.36 0.07 69 940.9
20200530174133 78 298 0.9 3.5 0.00 0.36 0.07 69 940.8
20200530174026 78 133 0.9 3.5 0.00 0.36 0.07 71 940.7
20200530173927 78 328 0.9 3.5 0.00 0.36 0.07 69 940.8
20200530173824 78 264 0.9 3.5 0.00 0.36 0.07 72 940.8
20200530173723 77 253 1.7 3.5 0.00 0.36 0.07 71 940.8
20200530173623 77 252 1.7 4.3 0.00 0.36 0.07 67 940.9
20200530173521 77 253 1.7 4.3 0.00 0.36 0.07 66 940.9
20200530173421 77 253 1.7 4.3 0.00 0.36 0.07 69 940.9
20200530173318 77 227 0.9 4.3 0.00 0.36 0.07 69 940.8
20200530173218 77 294 0.9 4.3 0.00 0.36 0.07 68 940.8
20200530173119 77 294 0.9 4.3 0.00 0.36 0.07 69 940.8
20200530173019 77 294 0.9 4.3 0.00 0.36 0.07 72 940.8
20200530172912 77 250 1.7 4.3 0.00 0.36 0.07 68 940.8
20200530172813 77 260 1.7 4.3 0.00 0.36 0.07 73 940.8
20200530172706 77 317 0.9 4.3 0.00 0.36 0.07 77 940.8
20200530172607 76 345 0.9 2.6 0.00 0.36 0.07 76 940.8
20200530172500 76 188 0.9 2.6 0.00 0.36 0.07 74 940.8
20200530172401 76 132 0.9 2.6 0.00 0.36 0.07 74 940.8
20200530172254 75 132 0.9 2.6 0.00 0.36 0.07 75 940.8
20200530172155 75 132 0.9 2.6 0.00 0.36 0.07 77 940.9
20200530172055 75 129 0.9 4.3 0.00 0.36 0.07 76 940.8
20200530171955 75 129 0.9 5.2 0.00 0.36 0.07 75 940.9
20200530171852 75 125 0.9 5.2 0.00 0.36 0.07 74 940.8
20200530171752 76 123 0.9 5.2 0.00 0.36 0.07 73 940.8
20200530171654 76 123 1.7 5.2 0.00 0.36 0.07 73 940.8
20200530171552 76 123 1.7 5.2 0.00 0.36 0.07 73 940.8
20200530171453 76 157 1.7 5.2 0.00 0.36 0.07 72 940.8
20200530171346 76 157 1.7 5.2 0.00 0.36 0.07 72 940.8
20200530171247 76 157 1.7 5.2 0.00 0.36 0.07 69 940.8
20200530171141 76 157 1.7 5.2 0.00 0.36 0.07 68 940.8
20200530171041 76 128 0.9 2.6 0.00 0.36 0.07 74 940.9
20200530170935 77 200 0.9 2.6 0.00 0.36 0.07 72 940.8
20200530170834 77 200 0.9 2.6 0.00 0.36 0.07 70 940.8
20200530170728 77 250 0.9 2.6 0.00 0.36 0.07 74 940.8
20200530170629 77 144 1.7 2.6 0.00 0.36 0.07 74 940.7
20200530170522 77 355 1.7 2.6 0.00 0.36 0.07 79 940.9
20200530170423 76 273 1.7 3.5 0.00 0.36 0.07 74 940.8
20200530170316 76 273 1.7 3.5 0.00 0.36 0.07 76 940.9
20200530170216 76 274 1.7 3.5 0.00 0.36 0.07 75 940.9
20200530170112 76 273 1.7 3.5 0.00 0.36 0.07 73 941.0
20200530170011 76 281 1.7 3.5 0.00 0.36 0.07 71 940.9
20200530165903 76 249 1.7 3.5 0.00 0.36 0.07 76 940.9
20200530165804 76 223 1.7 3.5 0.00 0.36 0.07 75 940.9
20200530165705 76 213 1.7 3.5 0.00 0.36 0.07 76 941.0
20200530165605 76 214 1.7 3.5 0.00 0.36 0.07 73 940.9
20200530165506 76 234 1.7 3.5 0.00 0.36 0.07 75 941.0
20200530165405 76 238 0.9 3.5 0.00 0.36 0.07 75 941.0
20200530165305 76 324 0.9 3.5 0.00 0.36 0.07 76 940.9
20200530165204 75 226 0.9 3.5 0.00 0.36 0.07 75 941.0
20200530165102 75 225 0.9 3.5 0.00 0.36 0.07 75 940.9
20200530165004 75 226 0.9 3.5 0.00 0.36 0.07 73 940.9
20200530164904 75 226 0.9 3.5 0.00 0.36 0.07 74 941.0
20200530164802 75 216 0.9 3.5 0.00 0.36 0.07 76 941.0
20200530164701 75 173 0.9 3.5 0.00 0.36 0.07 75 941.0
20200530164604 75 173 0.9 3.5 0.00 0.36 0.07 75 941.0
20200530164504 75 173 0.9 3.5 0.00 0.36 0.07 75 941.0
20200530164359 75 173 0.9 3.5 0.00 0.36 0.07 76 941.0
20200530164258 75 173 1.7 3.5 0.00 0.36 0.07 74 941.0
20200530164157 75 160 1.7 2.6 0.00 0.36 0.07 74 941.0
20200530164058 75 113 1.7 2.6 0.00 0.36 0.07 70 941.0
20200530163958 75 235 0.9 2.6 0.00 0.36 0.07 72 941.0
20200530163858 75 235 1.7 2.6 0.00 0.36 0.07 75 941.0
20200530163758 75 235 1.7 3.5 0.00 0.36 0.07 72 940.9
20200530163659 75 235 1.7 3.5 0.00 0.36 0.07 78 941.0
20200530163554 75 294 1.7 3.5 0.00 0.36 0.07 80 941.0
20200530163455 75 294 1.7 3.5 0.00 0.36 0.07 82 941.0
20200530163354 74 294 1.7 3.5 0.00 0.36 0.07 75 941.0
20200530163254 75 294 1.7 3.5 0.00 0.36 0.07 75 941.1
20200530163154 74 294 1.7 3.5 0.00 0.36 0.07 75 941.0
20200530163054 74 341 1.7 3.5 0.00 0.36 0.07 76 941.1
20200530162955 74 217 1.7 3.5 0.00 0.36 0.07 71 941.0
20200530162855 74 217 1.7 3.5 0.00 0.36 0.07 73 941.0
20200530162750 74 228 0.9 3.5 0.00 0.36 0.07 72 941.0
20200530162649 75 228 0.9 2.6 0.00 0.36 0.07 73 941.0
20200530162550 75 208 0.9 2.6 0.00 0.36 0.07 77 941.0
20200530162452 76 190 0.9 2.6 0.00 0.36 0.07 74 941.1
20200530162350 76 244 0.9 2.6 0.00 0.36 0.07 77 941.1
20200530162251 76 41 0.9 2.6 0.00 0.36 0.07 74 941.0
20200530162149 76 300 0.9 2.6 0.00 0.36 0.07 77 941.2
20200530162051 76 302 0.9 2.6 0.00 0.36 0.07 82 941.2
20200530161945 75 260 0.9 2.6 0.00 0.36 0.07 81 941.2
20200530161845 75 257 0.9 2.6 0.00 0.36 0.07 80 941.3
20200530161745 74 257 0.9 2.6 0.00 0.36 0.07 79 941.2
20200530161648 74 257 0.9 2.6 0.00 0.36 0.07 76 941.3
20200530161546 74 257 0.9 2.6 0.00 0.36 0.07 81 941.3
20200530161445 74 208 0.9 2.6 0.00 0.36 0.07 81 941.2
20200530161346 74 208 0.9 2.6 0.00 0.36 0.07 78 941.3
20200530161247 74 208 0.9 2.6 0.00 0.36 0.07 77 941.2
20200530161142 74 208 0.9 2.6 0.00 0.36 0.07 79 941.2
20200530161043 74 208 0.9 2.6 0.00 0.36 0.07 78 941.2
20200530160942 74 208 0.9 2.6 0.00 0.36 0.07 76 941.2
20200530160842 74 208 0.9 2.6 0.00 0.36 0.07 76 941.3
20200530160742 74 208 0.9 2.6 0.00 0.36 0.07 79 941.3
20200530160642 74 221 0.9 2.6 0.00 0.36 0.07 81 941.3
20200530160542 74 225 0.9 2.6 0.00 0.36 0.07 76 941.4
20200530160443 74 338 0.9 2.6 0.00 0.36 0.07 75 941.5
20200530160338 74 271 0.9 2.6 0.00 0.36 0.07 77 941.5
20200530160239 74 191 0.9 2.6 0.00 0.36 0.07 76 941.6
20200530160138 74 186 0.9 2.6 0.00 0.36 0.07 79 941.6
20200530160038 75 186 0.9 3.5 0.00 0.36 0.07 83 941.5
20200530155938 75 184 0.9 3.5 0.00 0.36 0.07 81 941.5
20200530155838 75 280 0.9 3.5 0.00 0.36 0.07 79 941.6
20200530155737 74 280 0.9 3.5 0.00 0.36 0.07 78 941.6
20200530155639 74 279 0.9 4.3 0.00 0.36 0.07 79 941.6
20200530155535 74 277 0.9 4.3 0.00 0.36 0.07 79 941.5
20200530155435 75 277 1.7 4.3 0.00 0.36 0.07 78 941.5
20200530155334 74 119 1.7 4.3 0.00 0.36 0.07 76 941.5
20200530155235 74 191 1.7 4.3 0.00 0.36 0.07 79 941.5
20200530155134 74 196 1.7 4.3 0.00 0.36 0.07 78 941.5
20200530155034 74 169 1.7 4.3 0.00 0.36 0.07 79 941.6
20200530154934 74 327 1.7 4.3 0.00 0.36 0.07 79 941.5
20200530154835 74 325 1.7 4.3 0.00 0.36 0.07 75 941.5
20200530154730 74 327 0.9 4.3 0.00 0.36 0.07 76 941.4
20200530154631 73 324 0.9 2.6 0.00 0.36 0.07 76 941.6
20200530154530 73 172 1.7 2.6 0.00 0.36 0.07 81 941.5
20200530154431 73 300 1.7 6.1 0.00 0.36 0.07 78 941.6
20200530154330 73 300 1.7 6.1 0.00 0.36 0.07 80 941.5
20200530154231 74 300 1.7 6.1 0.00 0.36 0.07 79 941.5
20200530154131 74 303 1.7 6.1 0.00 0.36 0.07 78 941.5
20200530154031 74 235 1.7 6.1 0.00 0.36 0.07 80 941.5
20200530153926 74 223 1.7 6.1 0.00 0.36 0.07 83 941.5
20200530153826 74 223 1.7 6.1 0.00 0.36 0.07 81 941.6
20200530153725 74 225 1.7 6.1 0.00 0.36 0.07 79 941.5
20200530153625 74 224 1.7 6.1 0.00 0.36 0.07 78 941.6
20200530153526 73 335 1.7 6.1 0.00 0.36 0.07 76 941.6
20200530153426 73 316 0.9 4.3 0.00 0.36 0.07 78 941.6
20200530153326 73 224 0.9 3.5 0.00 0.36 0.07 80 941.5
20200530153226 74 224 0.9 3.5 0.00 0.36 0.07 79 941.5
20200530153121 74 224 0.9 3.5 0.00 0.36 0.07 80 941.6
20200530153024 74 223 0.9 3.5 0.00 0.36 0.07 79 941.6
20200530152921 75 223 1.7 3.5 0.00 0.36 0.07 82 941.7
20200530152821 74 218 1.7 3.5 0.00 0.36 0.07 79 941.6
20200530152722 74 345 1.7 3.5 0.00 0.36 0.07 78 941.6
20200530152622 74 323 0.9 3.5 0.00 0.36 0.07 78 941.7
20200530152523 74 5 0.9 3.5 0.00 0.36 0.07 78 941.6
20200530152423 73 335 0.9 3.5 0.00 0.36 0.07 73 941.6
20200530152319 73 265 0.9 3.5 0.00 0.36 0.07 79 941.7
20200530152218 73 304 0.9 2.6 0.00 0.36 0.07 78 941.6
20200530152118 73 304 0.9 2.6 0.00 0.36 0.07 80 941.7
20200530152019 73 355 0.9 2.6 0.00 0.36 0.07 81 941.8
20200530151918 73 191 0.9 2.6 0.00 0.36 0.07 81 941.7
20200530151819 73 174 0.9 2.6 0.00 0.36 0.07 79 941.7
20200530151717 73 174 0.9 2.6 0.00 0.36 0.07 79 941.7
20200530151619 73 174 1.7 2.6 0.00 0.36 0.07 79 941.7
20200530151515 73 173 1.7 4.3 0.00 0.36 0.07 81 941.7
20200530151415 73 175 1.7 4.3 0.00 0.36 0.07 80 941.7
20200530151315 73 175 1.7 4.3 0.00 0.36 0.07 81 941.7
20200530151215 73 175 1.7 4.3 0.00 0.36 0.07 79 941.7
20200530151114 73 175 1.7 4.3 0.00 0.36 0.07 79 941.6
20200530151014 73 210 0.9 4.3 0.00 0.36 0.07 78 941.8
20200530150914 73 176 0.9 4.3 0.00 0.36 0.07 74 941.7
20200530150815 73 286 0.9 4.3 0.00 0.36 0.07 74 941.7
20200530150711 74 290 0.9 4.3 0.00 0.36 0.07 73 941.7
20200530150611 74 290 0.9 4.3 0.00 0.36 0.07 76 941.7
20200530150510 74 306 0.9 3.5 0.00 0.36 0.07 83 941.7
20200530150410 73 109 0.9 2.6 0.00 0.36 0.07 80 941.7
20200530150310 73 110 0.9 2.6 0.00 0.36 0.07 80 941.7
20200530150211 73 111 0.9 2.6 0.00 0.36 0.07 80 941.7
20200530150110 73 109 0.9 2.6 0.00 0.36 0.07 77 941.6
20200530150011 72 235 1.7 2.6 0.00 0.36 0.07 82 941.7
20200530145906 72 240 1.7 2.6 0.00 0.36 0.07 77 941.7
20200530145806 72 196 1.7 2.6 0.00 0.36 0.07 78 941.7
20200530145706 72 193 1.7 2.6 0.00 0.36 0.07 79 941.7
20200530145606 71 181 1.7 2.6 0.00 0.36 0.07 78 941.8
20200530145506 71 225 1.7 2.6 0.00 0.36 0.07 81 941.7
20200530145407 72 225 1.7 2.6 0.00 0.36 0.07 79 941.8
20200530145305 72 225 1.7 2.6 0.00 0.36 0.07 80 941.7
20200530145207 72 225 1.7 2.6 0.00 0.36 0.07 77 941.7
20200530145101 72 225 0.9 2.6 0.00 0.36 0.07 80 941.7
20200530145003 72 219 0.9 2.6 0.00 0.36 0.07 82 941.7
20200530144902 72 165 0.9 2.6 0.00 0.36 0.07 83 941.8
20200530144803 71 165 0.9 2.6 0.00 0.36 0.07 83 941.8
20200530144701 71 163 0.9 2.6 0.00 0.36 0.07 79 941.8
20200530144602 71 170 0.9 2.6 0.00 0.36 0.07 82 941.8
20200530144502 71 200 0.9 2.6 0.00 0.36 0.07 80 941.8
20200530144403 71 279 0.9 2.6 0.00 0.36 0.07 81 941.7
20200530144259 70 254 0.9 1.7 0.00 0.36 0.07 81 941.8
20200530144159 70 254 0.9 1.7 0.00 0.36 0.07 85 941.8
20200530144057 70 254 0.9 1.7 0.00 0.36 0.07 84 941.8
20200530143959 70 254 0.9 2.6 0.00 0.36 0.07 83 941.9
20200530143858 71 254 0.9 2.6 0.00 0.36 0.07 85 941.9
20200530143759 71 254 0.9 2.6 0.00 0.36 0.07 82 941.9
20200530143659 71 254 0.9 2.6 0.00 0.36 0.07 84 941.9
20200530143559 71 254 0.9 2.6 0.00 0.36 0.07 83 941.9
20200530143454 71 254 0.9 2.6 0.00 0.36 0.07 82 941.8
20200530143354 70 254 0.9 2.6 0.00 0.36 0.07 80 941.9
20200530143254 70 254 0.9 2.6 0.00 0.36 0.07 81 941.8
20200530143155 71 254 0.9 2.6 0.00 0.36 0.07 80 941.9
20200530143054 70 254 0.9 1.7 0.00 0.36 0.07 81 941.8
20200530142955 71 254 0.9 1.7 0.00 0.36 0.07 80 941.8
20200530142854 70 254 0.9 1.7 0.00 0.36 0.07 83 941.9
20200530142755 70 254 0.9 1.7 0.00 0.36 0.07 81 941.9
20200530142655 71 254 0.9 1.7 0.00 0.36 0.07 80 941.9
20200530142553 71 254 0.9 1.7 0.00 0.36 0.07 82 941.9
20200530142455 70 253 0.9 1.7 0.00 0.36 0.07 80 942.0
20200530142354 71 253 0.9 1.7 0.00 0.36 0.07 83 942.0
20200530142253 71 253 0.9 1.7 0.00 0.36 0.07 82 941.9
20200530142146 71 355 0.9 1.7 0.00 0.36 0.07 83 941.9
20200530142045 71 355 0.9 1.7 0.00 0.36 0.07 83 941.9
20200530141939 71 355 0.9 2.6 0.00 0.36 0.07 83 941.9
20200530141840 71 355 0.9 2.6 0.00 0.36 0.07 82 941.9
20200530141733 71 355 0.9 2.6 0.00 0.36 0.07 82 941.9
20200530141633 71 355 0.9 2.6 0.00 0.36 0.07 85 942.0
20200530141527 71 355 0.9 2.6 0.00 0.36 0.07 80 941.9
20200530141426 71 355 0.9 2.6 0.00 0.36 0.07 80 941.9
20200530141319 71 355 0.9 2.6 0.00 0.36 0.07 82 942.0
20200530141220 71 355 0.9 2.6 0.00 0.36 0.07 80 941.9
20200530141115 71 355 0.9 2.6 0.00 0.36 0.07 80 941.9
20200530141014 71 355 0.9 2.6 0.00 0.36 0.07 82 941.9
20200530140909 70 339 0.9 2.6 0.00 0.36 0.07 84 942.0
20200530140809 70 239 0.9 2.6 0.00 0.36 0.07 85 941.9
20200530140702 71 234 0.9 2.6 0.00 0.36 0.07 83 941.9
20200530140602 71 233 0.9 2.6 0.00 0.36 0.07 84 941.9
20200530140457 71 233 0.9 2.6 0.00 0.36 0.07 83 942.0
20200530140356 71 233 1.7 4.3 0.00 0.36 0.07 82 942.0
20200530140251 71 15 1.7 5.2 0.00 0.36 0.07 86 942.0
20200530140149 71 336 1.7 5.2 0.00 0.36 0.07 85 942.1
20200530140042 71 331 1.7 5.2 0.00 0.36 0.07 85 942.1
20200530135942 71 331 1.7 5.2 0.00 0.36 0.07 86 942.1
20200530135837 70 347 1.7 5.2 0.00 0.36 0.07 86 942.0
20200530135736 71 244 1.7 5.2 0.00 0.36 0.07 85 942.0
20200530135630 71 244 1.7 5.2 0.00 0.36 0.07 84 942.1
20200530135530 71 310 1.7 5.2 0.00 0.36 0.07 85 942.1
20200530135423 71 327 0.9 5.2 0.00 0.36 0.07 85 942.0
20200530135325 71 310 0.9 5.2 0.00 0.36 0.07 85 942.1
20200530135219 70 303 0.9 3.5 0.00 0.36 0.07 85 942.1
20200530135118 70 296 0.9 3.5 0.00 0.36 0.07 85 942.0
20200530135012 71 296 0.9 3.5 0.00 0.36 0.07 83 942.0
20200530134913 71 296 0.9 3.5 0.00 0.36 0.07 83 942.0
20200530134806 71 0 0.9 3.5 0.00 0.36 0.07 86 942.0
20200530134706 70 333 0.9 3.5 0.00 0.36 0.07 85 942.1
20200530134600 70 289 0.9 3.5 0.00 0.36 0.07 82 942.1
20200530134500 70 289 0.9 3.5 0.00 0.36 0.07 85 942.0
20200530134355 70 320 0.9 2.6 0.00 0.36 0.07 84 942.1
20200530134254 70 320 0.9 2.6 0.00 0.36 0.07 83 942.1
20200530134148 70 320 0.9 2.6 0.00 0.36 0.07 83 942.2
20200530134048 71 320 0.9 2.6 0.00 0.36 0.07 82 942.2
20200530133942 71 297 0.9 2.6 0.00 0.36 0.07 81 942.2
20200530133842 71 327 0.9 2.6 0.00 0.36 0.07 84 942.1
20200530133736 71 329 0.9 2.6 0.00 0.36 0.07 83 942.1
20200530133636 71 333 0.9 4.3 0.00 0.36 0.07 83 942.2
20200530133530 71 298 1.7 5.2 0.00 0.36 0.07 84 942.2
20200530133430 71 301 1.7 5.2 0.00 0.36 0.07 86 942.2
20200530133323 70 300 1.7 5.2 0.00 0.36 0.07 83 942.1
20200530133224 70 319 1.7 5.2 0.00 0.36 0.07 84 942.1
20200530133117 70 313 1.7 5.2 0.00 0.36 0.07 86 942.1
20200530133018 70 313 1.7 5.2 0.00 0.36 0.07 83 942.1
20200530132911 70 313 1.7 5.2 0.00 0.36 0.07 84 942.1
20200530132813 70 282 1.7 5.2 0.00 0.36 0.07 83 942.1
20200530132707 70 282 1.7 5.2 0.00 0.36 0.07 82 942.1
20200530132606 70 328 0.9 4.3 0.00 0.36 0.07 86 942.1
20200530132501 70 319 0.9 3.5 0.00 0.36 0.07 87 942.2
20200530132401 70 321 0.9 3.5 0.00 0.36 0.07 86 942.1
20200530132303 70 321 0.9 3.5 0.00 0.36 0.07 85 942.1
20200530132201 70 316 0.9 3.5 0.00 0.36 0.07 85 942.2
20200530132059 70 331 0.9 3.5 0.00 0.36 0.07 84 942.1
20200530131957 70 295 0.9 3.5 0.00 0.36 0.07 87 942.1
20200530131858 70 269 1.7 3.5 0.00 0.36 0.07 86 942.1
20200530131759 71 269 1.7 3.5 0.00 0.36 0.07 84 942.1
20200530131658 71 355 1.7 3.5 0.00 0.36 0.07 85 942.1
20200530131553 71 25 1.7 3.5 0.00 0.36 0.07 86 942.1
20200530131453 71 344 1.7 3.5 0.00 0.36 0.07 86 942.0
20200530131346 71 0 0.9 3.5 0.00 0.36 0.07 88 942.1
20200530131246 70 311 0.9 3.5 0.00 0.36 0.07 86 942.1
20200530131140 70 344 0.9 3.5 0.00 0.36 0.07 86 942.1
20200530131040 70 308 0.9 3.5 0.00 0.36 0.07 85 942.0
20200530130933 70 346 0.9 3.5 0.00 0.36 0.07 86 942.1
20200530130835 69 355 0.9 3.5 0.00 0.36 0.07 88 942.1
20200530130728 70 307 0.9 2.6 0.00 0.36 0.07 88 942.1
20200530130628 70 307 0.9 2.6 0.00 0.36 0.07 87 942.1
20200530130522 70 307 0.9 2.6 0.00 0.36 0.07 87 942.1
20200530130423 69 338 0.9 2.6 0.00 0.36 0.07 87 942.1
20200530130315 69 338 0.9 2.6 0.00 0.36 0.07 87 942.2
20200530130216 69 322 0.0 1.7 0.00 0.36 0.07 88 942.2
20200530130111 69 323 0.0 1.7 0.00 0.36 0.07 88 942.2
20200530130010 69 323 0.0 1.7 0.00 0.36 0.07 88 942.2
20200530125904 69 323 0.0 1.7 0.00 0.36 0.07 89 942.3
20200530125804 68 323 0.0 1.7 0.00 0.36 0.07 89 942.3
20200530125657 68 323 0.9 1.7 0.00 0.36 0.07 89 942.2
20200530125558 68 323 0.9 1.7 0.00 0.36 0.07 87 942.2
20200530125452 68 323 0.9 1.7 0.00 0.36 0.07 90 942.2
20200530125352 68 323 0.9 1.7 0.00 0.36 0.07 89 942.2
20200530125246 68 323 0.9 1.7 0.00 0.36 0.07 90 942.2
20200530125146 68 323 0.9 1.7 0.00 0.36 0.07 90 942.2
20200530125041 68 323 0.9 1.7 0.00 0.36 0.07 89 942.2
20200530124940 68 323 0.9 1.7 0.00 0.36 0.07 89 942.2
20200530124835 68 323 0.9 2.6 0.00 0.36 0.07 89 942.2
20200530124734 68 323 0.9 2.6 0.00 0.36 0.07 90 942.2
20200530124628 68 323 0.9 2.6 0.00 0.36 0.07 90 942.2
20200530124527 68 323 0.9 2.6 0.00 0.36 0.07 89 942.2
20200530124423 67 323 0.9 2.6 0.00 0.36 0.07 89 942.1
20200530124322 68 323 0.9 2.6 0.00 0.36 0.07 90 942.1
20200530124215 68 341 0.9 2.6 0.00 0.36 0.07 90 942.2
20200530124116 68 341 0.9 2.6 0.00 0.36 0.07 90 942.1
20200530124011 68 341 0.9 2.6 0.00 0.36 0.07 90 942.1
20200530123910 68 341 0.9 2.6 0.00 0.36 0.07 90 942.1
20200530123804 67 244 0.9 1.7 0.00 0.36 0.07 90 942.1
20200530123704 67 244 0.9 1.7 0.00 0.36 0.07 90 942.0
20200530123557 67 244 0.9 1.7 0.00 0.36 0.07 90 942.1
20200530123457 67 244 0.9 1.7 0.00 0.36 0.07 90 942.1
20200530123350 67 244 0.9 1.7 0.00 0.36 0.07 90 942.0
20200530123250 67 244 0.9 1.7 0.00 0.36 0.07 89 942.0
20200530123145 67 244 0.9 1.7 0.00 0.36 0.07 90 941.9
20200530123043 67 244 0.9 1.7 0.00 0.36 0.07 89 941.9
20200530122939 67 244 0.9 1.7 0.00 0.36 0.07 89 942.0
20200530122838 67 242 0.9 1.7 0.00 0.36 0.07 90 942.0
20200530122732 67 242 0.9 1.7 0.00 0.36 0.07 90 942.0
20200530122632 67 242 0.9 1.7 0.00 0.36 0.07 90 942.0
20200530122526 67 242 0.9 1.7 0.00 0.36 0.07 89 942.0
20200530122426 67 242 0.9 1.7 0.00 0.36 0.07 90 942.0
20200530122320 67 242 0.9 1.7 0.00 0.36 0.07 90 942.0
20200530122220 67 244 0.9 1.7 0.00 0.36 0.07 90 941.9
20200530122114 67 244 0.9 1.7 0.00 0.36 0.07 90 941.9
20200530122013 67 244 0.9 1.7 0.00 0.36 0.07 91 941.9
20200530121905 67 244 0.9 1.7 0.00 0.36 0.07 91 941.9
20200530121806 67 244 0.9 1.7 0.00 0.36 0.07 90 941.8
20200530121700 67 244 0.9 1.7 0.00 0.36 0.07 90 941.9
20200530121559 67 244 0.9 1.7 0.00 0.36 0.07 90 941.9
20200530121455 67 244 0.9 1.7 0.00 0.36 0.07 91 941.8
20200530121354 67 244 0.9 1.7 0.00 0.36 0.07 90 941.8
20200530121251 67 244 0.9 1.7 0.00 0.36 0.07 91 941.8
20200530121149 66 244 0.9 1.7 0.00 0.36 0.07 91 941.8
20200530121048 66 244 0.9 1.7 0.00 0.36 0.07 91 941.7
20200530120948 66 244 0.9 1.7 0.00 0.36 0.07 91 941.7
20200530120847 66 244 0.9 1.7 0.00 0.36 0.07 91 941.7
20200530120747 66 244 0.9 1.7 0.00 0.36 0.07 91 941.8
20200530120646 66 244 0.9 1.7 0.00 0.36 0.07 91 941.8
20200530120547 66 244 0.9 1.7 0.00 0.36 0.07 91 941.7
20200530120445 66 244 0.9 1.7 0.00 0.36 0.07 92 941.7
20200530120341 66 244 0.9 1.7 0.00 0.36 0.07 92 941.7
20200530120240 66 244 0.9 2.6 0.00 0.36 0.07 92 941.6
20200530120134 66 244 0.9 2.6 0.00 0.36 0.07 92 941.6
20200530120034 66 244 0.9 2.6 0.00 0.36 0.07 92 941.7
20200530115927 66 244 0.9 2.6 0.00 0.36 0.07 92 941.7
20200530115829 66 244 0.9 2.6 0.00 0.36 0.07 92 941.7
20200530115724 66 244 0.9 2.6 0.00 0.36 0.07 92 941.6
20200530115623 65 244 0.9 2.6 0.00 0.36 0.07 92 941.6
20200530115523 65 244 0.9 2.6 0.00 0.36 0.07 93 941.6
20200530115422 65 244 0.9 2.6 0.00 0.36 0.07 93 941.6
20200530115322 65 244 0.9 1.7 0.00 0.36 0.07 93 941.6
20200530115219 65 244 0.9 1.7 0.00 0.36 0.07 93 941.6
20200530115119 65 244 0.9 1.7 0.00 0.36 0.07 93 941.6
20200530115020 65 244 0.9 1.7 0.00 0.36 0.07 93 941.6
20200530114920 65 244 0.9 1.7 0.00 0.36 0.07 93 941.6
20200530114814 65 244 0.9 1.7 0.00 0.36 0.07 93 941.7
20200530114714 65 244 0.9 1.7 0.00 0.36 0.07 93 941.5
20200530114608 65 244 0.9 1.7 0.00 0.36 0.07 93 941.6
20200530114509 65 244 0.9 2.6 0.00 0.36 0.07 93 941.6
20200530114401 65 244 0.9 2.6 0.00 0.36 0.07 93 941.6
20200530114302 65 244 0.9 2.6 0.00 0.36 0.07 93 941.5
20200530114157 65 244 0.9 2.6 0.00 0.36 0.07 93 941.5
20200530114056 65 244 1.7 2.6 0.00 0.36 0.07 93 941.5
20200530113949 65 244 1.7 2.6 0.00 0.36 0.07 93 941.5
20200530113850 65 244 1.7 2.6 0.00 0.36 0.07 93 941.6
20200530113745 65 244 1.7 2.6 0.00 0.36 0.07 94 941.5
20200530113644 65 244 1.7 2.6 0.00 0.36 0.07 94 941.5
20200530113537 65 244 1.7 2.6 0.00 0.36 0.07 94 941.6
20200530113332 65 257 1.7 2.6 0.00 0.36 0.07 94 941.5
20200530113232 65 257 1.7 2.6 0.00 0.36 0.07 94 941.4
20200530113125 65 257 1.7 2.6 0.00 0.36 0.07 94 941.5
20200530113026 65 257 1.7 2.6 0.00 0.36 0.07 94 941.5
20200530112919 65 257 1.7 2.6 0.00 0.36 0.07 94 941.4
20200530112821 65 254 1.7 2.6 0.00 0.36 0.07 94 941.5
20200530112714 65 254 1.7 2.6 0.00 0.36 0.07 94 941.5
20200530112614 65 254 1.7 2.6 0.00 0.36 0.07 94 941.4
20200530112509 64 254 1.7 2.6 0.00 0.36 0.07 94 941.5
20200530112408 64 254 1.7 2.6 0.00 0.36 0.07 95 941.5
20200530112305 64 254 1.7 2.6 0.00 0.36 0.07 95 941.5
20200530112202 64 255 1.7 2.6 0.00 0.36 0.07 95 941.4
20200530112056 64 255 1.7 2.6 0.00 0.36 0.07 95 941.5
20200530111956 64 255 1.7 2.6 0.00 0.36 0.07 96 941.5
20200530111850 64 255 1.7 2.6 0.00 0.36 0.07 95 941.5
20200530111750 64 255 1.7 2.6 0.00 0.36 0.07 96 941.5
20200530111645 64 255 1.7 2.6 0.00 0.36 0.07 96 941.6
20200530111544 64 255 1.7 2.6 0.00 0.36 0.07 96 941.5
20200530111438 64 255 1.7 2.6 0.00 0.36 0.07 96 941.5
20200530111337 64 255 1.7 2.6 0.00 0.36 0.07 96 941.5
20200530111231 64 255 1.7 2.6 0.00 0.36 0.07 97 941.5
20200530111131 64 255 1.7 2.6 0.00 0.36 0.07 97 941.6
20200530111026 64 254 1.7 2.6 0.00 0.36 0.07 97 941.5
20200530110926 64 255 1.7 2.6 0.00 0.36 0.07 97 941.5
20200530110821 64 252 1.7 2.6 0.00 0.36 0.07 97 941.5
20200530110720 64 252 1.7 2.6 0.00 0.36 0.07 97 941.4
20200530110613 64 254 1.7 2.6 0.00 0.36 0.07 97 941.5
20200530110515 64 254 1.7 2.6 0.00 0.36 0.07 97 941.5
20200530110408 64 250 1.7 2.6 0.00 0.36 0.07 97 941.5
20200530110308 64 250 1.7 2.6 0.00 0.36 0.07 97 941.5
20200530110202 64 240 1.7 2.6 0.00 0.36 0.07 97 941.5
20200530110102 64 240 1.7 3.5 0.00 0.36 0.07 97 941.4
20200530105956 64 240 2.6 3.5 0.00 0.36 0.07 97 941.5
20200530105856 64 240 2.6 3.5 0.00 0.36 0.07 97 941.5
20200530105750 64 240 2.6 3.5 0.00 0.36 0.07 97 941.5
20200530105650 64 240 2.6 3.5 0.00 0.36 0.07 97 941.5
20200530105544 64 240 2.6 3.5 0.00 0.36 0.07 97 941.5
20200530105444 64 240 2.6 3.5 0.00 0.36 0.07 96 941.5
20200530105338 64 240 2.6 3.5 0.00 0.36 0.07 96 941.5
20200530105238 64 240 2.6 3.5 0.00 0.36 0.07 96 941.5
20200530105132 64 240 2.6 2.6 0.00 0.36 0.07 96 941.5
20200530105033 64 240 2.6 2.6 0.00 0.36 0.07 96 941.5
20200530104926 64 240 2.6 2.6 0.00 0.36 0.07 96 941.5
20200530104826 64 240 1.7 2.6 0.00 0.36 0.07 96 941.5
20200530104720 64 240 1.7 2.6 0.00 0.36 0.07 96 941.5
20200530104627 64 240 1.7 2.6 0.00 0.36 0.07 96 941.4
20200530104514 64 248 1.7 2.6 0.00 0.36 0.07 97 941.4
20200530104414 64 246 1.7 2.6 0.00 0.36 0.07 97 941.4
20200530104307 64 246 1.7 2.6 0.00 0.36 0.07 97 941.5
20200530104208 64 246 1.7 2.6 0.00 0.36 0.07 97 941.4
20200530104102 64 246 1.7 2.6 0.00 0.36 0.07 97 941.4
20200530104002 64 245 1.7 2.6 0.00 0.36 0.07 97 941.3
20200530103855 64 245 1.7 2.6 0.00 0.36 0.07 97 941.4
20200530103756 64 245 1.7 2.6 0.00 0.36 0.07 97 941.4
20200530103649 64 245 1.7 2.6 0.00 0.36 0.07 97 941.4
20200530103550 64 245 1.7 2.6 0.00 0.36 0.07 98 941.4
20200530103444 64 245 1.7 2.6 0.00 0.36 0.07 97 941.4
20200530103344 64 245 1.7 2.6 0.00 0.36 0.07 97 941.4
20200530103237 64 245 1.7 2.6 0.00 0.36 0.07 98 941.3
20200530103138 64 245 1.7 2.6 0.00 0.36 0.07 98 941.4
20200530103031 64 245 1.7 2.6 0.00 0.36 0.07 98 941.3
20200530102932 64 245 1.7 2.6 0.00 0.36 0.07 98 941.4
20200530102825 64 245 1.7 2.6 0.00 0.36 0.07 98 941.3
20200530102726 64 246 1.7 2.6 0.00 0.36 0.07 98 941.4
20200530102620 64 246 1.7 2.6 0.00 0.36 0.07 98 941.3
20200530102520 64 246 1.7 2.6 0.00 0.36 0.07 98 941.2
20200530102412 64 246 1.7 2.6 0.00 0.36 0.07 98 941.4
20200530102314 64 246 1.7 2.6 0.00 0.36 0.07 98 941.3
20200530102208 64 246 1.7 2.6 0.00 0.36 0.07 98 941.4
20200530102109 64 246 1.7 2.6 0.00 0.36 0.07 98 941.4
20200530102001 64 246 1.7 2.6 0.00 0.36 0.07 98 941.4
20200530101902 64 246 1.7 2.6 0.00 0.36 0.07 98 941.3
20200530101756 64 246 1.7 3.5 0.00 0.36 0.07 98 941.3
20200530101656 64 246 1.7 3.5 0.00 0.36 0.07 98 941.4
20200530101550 64 246 1.7 3.5 0.00 0.36 0.07 98 941.3
20200530101450 64 246 1.7 3.5 0.00 0.36 0.07 98 941.3
20200530101345 64 245 1.7 3.5 0.00 0.36 0.07 98 941.3
20200530101244 64 245 1.7 3.5 0.00 0.36 0.07 98 941.3
20200530101138 64 245 1.7 3.5 0.00 0.36 0.07 98 941.3
20200530101038 64 245 1.7 3.5 0.00 0.36 0.07 98 941.3
20200530100931 64 246 1.7 3.5 0.00 0.36 0.07 98 941.3
20200530100832 64 245 1.7 2.6 0.00 0.36 0.07 98 941.3
20200530100725 64 246 1.7 2.6 0.00 0.36 0.07 98 941.3
20200530100626 64 248 1.7 2.6 0.00 0.36 0.07 98 941.4
20200530100519 64 248 1.7 2.6 0.00 0.36 0.07 98 941.3
20200530100420 64 248 1.7 2.6 0.00 0.36 0.07 98 941.3
20200530100315 64 248 1.7 2.6 0.00 0.36 0.07 98 941.3
20200530100214 64 248 1.7 3.5 0.00 0.36 0.07 98 941.3
20200530100107 64 248 1.7 3.5 0.00 0.36 0.07 98 941.3
20200530100008 64 248 1.7 3.5 0.00 0.36 0.07 98 941.3
20200530095901 64 240 1.7 3.5 0.00 0.36 0.07 98 941.2
20200530095802 64 240 1.7 3.5 0.00 0.36 0.07 98 941.2
20200530095656 64 240 2.6 3.5 0.00 0.36 0.07 98 941.2
20200530095556 64 240 2.6 3.5 0.00 0.36 0.07 98 941.2
20200530095449 64 240 2.6 3.5 0.00 0.36 0.07 98 941.2
20200530095350 64 240 2.6 3.5 0.00 0.36 0.07 98 941.2
20200530095244 64 240 2.6 3.5 0.00 0.36 0.07 98 941.2
20200530095144 64 240 2.6 3.5 0.00 0.36 0.07 98 941.2
20200530095037 64 240 2.6 3.5 0.00 0.36 0.07 98 941.1
20200530094938 64 240 2.6 3.5 0.00 0.36 0.07 98 941.2
20200530094832 64 240 2.6 3.5 0.00 0.36 0.07 98 941.2
20200530094732 64 240 2.6 3.5 0.00 0.36 0.07 98 941.2
20200530094625 64 240 1.7 3.5 0.00 0.36 0.07 98 941.2
20200530094527 64 240 1.7 3.5 0.00 0.36 0.07 98 941.2
20200530094419 64 240 1.7 3.5 0.00 0.36 0.07 98 941.2
20200530094321 64 240 1.7 3.5 0.00 0.36 0.07 98 941.2
20200530094213 64 240 1.7 3.5 0.00 0.36 0.07 98 941.1
20200530094114 64 240 1.7 3.5 0.00 0.36 0.07 98 941.1
20200530094007 64 240 1.7 3.5 0.00 0.36 0.07 98 941.1
20200530093802 64 240 1.7 3.5 0.00 0.36 0.07 98 941.1
20200530093702 64 240 1.7 3.5 0.00 0.36 0.07 98 941.0
20200530093556 64 240 1.7 3.5 0.00 0.36 0.07 98 941.0
20200530093455 64 240 1.7 2.6 0.00 0.36 0.07 98 941.0
20200530093349 64 240 1.7 2.6 0.00 0.36 0.07 98 941.0
20200530093250 64 240 1.7 2.6 0.00 0.36 0.07 98 941.0
20200530093145 64 240 1.7 2.6 0.00 0.36 0.07 98 941.0
20200530093044 64 240 1.7 2.6 0.00 0.36 0.07 98 941.0
20200530092937 64 240 1.7 2.6 0.00 0.36 0.07 98 941.0
20200530092837 64 240 1.7 2.6 0.00 0.36 0.07 98 941.0
20200530092731 64 240 1.7 2.6 0.00 0.36 0.07 98 941.1
20200530092632 64 240 1.7 2.6 0.00 0.36 0.07 98 941.0
20200530092526 64 240 1.7 2.6 0.00 0.36 0.07 98 941.1
20200530092426 64 240 1.7 2.6 0.00 0.36 0.07 98 941.0
20200530092319 64 240 1.7 2.6 0.00 0.36 0.07 98 941.0
20200530092220 64 240 1.7 2.6 0.00 0.36 0.07 97 941.0
20200530092113 64 240 1.7 2.6 0.00 0.36 0.07 97 941.0
20200530092014 64 240 1.7 2.6 0.00 0.36 0.07 97 940.9
20200530091907 64 240 1.7 2.6 0.00 0.36 0.07 97 940.9
20200530091814 64 240 1.7 2.6 0.00 0.36 0.07 97 941.0
20200530091602 64 240 1.7 2.6 0.00 0.36 0.07 97 940.9
20200530091456 64 240 1.7 2.6 0.00 0.36 0.07 97 940.9
20200530091356 64 240 1.7 2.6 0.00 0.36 0.07 97 940.9
20200530091251 64 240 1.7 2.6 0.00 0.36 0.07 97 940.9
20200530091149 64 240 1.7 2.6 0.00 0.36 0.07 97 940.9
20200530091044 64 240 1.7 2.6 0.00 0.36 0.07 97 940.9
20200530090944 64 240 1.7 2.6 0.00 0.36 0.07 96 940.9
20200530090835 64 240 1.7 2.6 0.00 0.36 0.07 96 940.9
20200530090735 64 240 1.7 2.6 0.00 0.36 0.07 96 940.8
20200530090627 64 240 1.7 2.6 0.00 0.36 0.07 96 940.8
20200530090528 64 240 1.7 2.6 0.00 0.36 0.07 96 940.8
20200530090421 64 240 1.7 3.5 0.00 0.36 0.07 96 940.9
20200530090322 64 240 1.7 3.5 0.00 0.36 0.07 96 940.8
20200530090215 64 240 1.7 3.5 0.00 0.36 0.07 96 940.8
20200530090116 64 240 1.7 3.5 0.00 0.36 0.07 96 940.9
20200530090010 64 240 1.7 3.5 0.00 0.36 0.07 95 940.9
20200530085909 64 240 1.7 3.5 0.00 0.36 0.07 95 940.8
20200530085803 65 240 1.7 3.5 0.00 0.36 0.07 95 940.9
20200530085704 65 240 1.7 3.5 0.00 0.36 0.07 95 940.9
20200530085559 65 240 1.7 3.5 0.00 0.36 0.07 95 940.8
20200530085458 65 240 1.7 2.6 0.00 0.36 0.07 95 940.8
20200530085352 65 240 1.7 2.6 0.00 0.36 0.07 95 940.9
20200530085252 65 240 1.7 2.6 0.00 0.36 0.07 95 940.7
20200530085146 65 240 1.7 2.6 0.00 0.36 0.07 95 940.9
20200530085046 65 240 1.7 2.6 0.00 0.36 0.07 96 940.9
20200530084939 64 240 1.7 2.6 0.00 0.36 0.07 96 940.9
20200530084840 64 240 1.7 2.6 0.00 0.36 0.07 96 940.9
20200530084733 64 240 1.7 2.6 0.00 0.36 0.07 96 941.0
20200530084634 64 240 1.7 2.6 0.00 0.36 0.07 96 940.9
20200530084528 64 240 1.7 2.6 0.00 0.36 0.07 96 940.9
20200530084428 64 240 1.7 2.6 0.00 0.36 0.07 96 940.9
20200530084322 64 240 1.7 2.6 0.00 0.36 0.07 96 940.9
20200530084222 64 240 1.7 2.6 0.00 0.36 0.07 96 940.9
20200530084120 64 240 1.7 2.6 0.00 0.36 0.07 96 940.9
20200530084017 64 240 1.7 2.6 0.00 0.36 0.07 96 940.9
20200530083917 64 240 1.7 2.6 0.00 0.36 0.07 96 940.9
20200530083816 64 240 1.7 2.6 0.00 0.36 0.07 96 941.0
20200530083715 64 240 1.7 2.6 0.00 0.36 0.07 96 941.0
20200530083613 64 240 1.7 2.6 0.00 0.36 0.07 96 941.0
20200530083511 64 240 1.7 2.6 0.00 0.36 0.07 96 940.9
20200530083411 64 240 1.7 2.6 0.00 0.36 0.07 96 941.0
20200530083312 64 240 1.7 2.6 0.00 0.36 0.07 96 940.9
20200530083205 64 240 1.7 2.6 0.00 0.36 0.07 96 940.9
20200530083106 64 240 1.7 2.6 0.00 0.36 0.07 96 940.8
20200530082959 64 240 1.7 2.6 0.00 0.36 0.07 96 940.9
20200530082900 64 240 1.7 2.6 0.00 0.36 0.07 96 940.9
20200530082753 64 240 1.7 2.6 0.00 0.36 0.07 96 941.0
20200530082655 64 240 1.7 2.6 0.00 0.36 0.07 97 940.9
20200530082548 64 240 1.7 2.6 0.00 0.36 0.07 97 940.9
20200530082448 64 240 1.7 2.6 0.00 0.36 0.07 97 941.0
20200530082341 64 240 1.7 2.6 0.00 0.36 0.07 97 941.0
20200530082242 64 240 1.7 2.6 0.00 0.36 0.07 97 941.0
20200530082135 64 240 1.7 2.6 0.00 0.36 0.07 97 940.9
20200530082036 64 240 1.7 2.6 0.00 0.36 0.07 98 940.9
20200530081929 64 240 1.7 2.6 0.00 0.36 0.07 98 940.9
20200530081830 64 240 1.7 2.6 0.00 0.36 0.07 98 940.9
20200530081723 64 240 1.7 2.6 0.00 0.36 0.07 98 940.9
20200530081625 63 240 1.7 2.6 0.00 0.36 0.07 98 940.9
20200530081518 63 240 1.7 3.5 0.00 0.36 0.07 98 940.9
20200530081418 63 240 1.7 3.5 0.00 0.36 0.07 98 940.9
20200530081311 63 240 1.7 3.5 0.00 0.36 0.07 98 940.9
20200530081212 63 240 1.7 3.5 0.00 0.36 0.07 98 940.9
20200530081105 63 240 1.7 3.5 0.00 0.36 0.07 98 941.0
20200530081006 63 240 1.7 3.5 0.00 0.36 0.07 98 940.9
20200530080859 63 240 1.7 3.5 0.00 0.36 0.07 98 941.0
20200530080800 63 240 1.7 3.5 0.00 0.36 0.07 98 940.9
20200530080653 63 240 1.7 3.5 0.00 0.36 0.07 98 940.9
20200530080554 63 240 1.7 2.6 0.00 0.36 0.07 98 940.8
20200530080448 63 240 1.7 2.6 0.00 0.36 0.07 98 940.8
20200530080349 63 240 1.7 2.6 0.00 0.36 0.07 98 940.9
20200530080242 63 240 1.7 2.6 0.00 0.36 0.07 98 940.8
20200530080142 63 240 1.7 2.6 0.00 0.36 0.07 98 940.9
20200530080036 63 240 1.7 2.6 0.00 0.36 0.07 98 940.9
20200530075936 63 240 1.7 2.6 0.00 0.36 0.07 98 940.8
20200530075831 63 240 1.7 2.6 0.00 0.36 0.07 98 940.8
20200530075730 64 240 1.7 2.6 0.00 0.36 0.07 98 940.8
20200530075622 64 240 1.7 2.6 0.00 0.36 0.07 98 940.9
20200530075524 64 240 1.7 2.6 0.00 0.36 0.07 98 940.9
20200530075417 64 240 1.7 2.6 0.00 0.36 0.07 98 940.9
20200530075319 64 240 1.7 2.6 0.00 0.36 0.07 98 940.9
20200530075210 64 240 1.7 2.6 0.00 0.36 0.07 98 940.8
20200530075113 64 240 1.7 2.6 0.00 0.36 0.07 98 940.9
20200530075005 64 240 1.7 2.6 0.00 0.36 0.07 98 940.8
20200530074907 64 240 1.7 2.6 0.00 0.36 0.07 98 940.8
20200530074800 64 240 1.7 2.6 0.00 0.36 0.07 98 940.8
20200530074700 64 240 1.7 2.6 0.00 0.36 0.07 98 940.8